| time (UTC) | temp C | wind direction | speed KPH | gust KPH | rain 1hr cm | rain 24hr cm | rain mn cm | humidity % | barometer mb |
| 20260508135809 | 13 | 221 | 0.0 | 19.3 | 0.00 | 0.00 | 0.00 | 43 | 1007.4 |
| 20260508135413 | 13 | 206 | 0.0 | 19.3 | 0.00 | 0.00 | 0.00 | 43 | 1007.4 |
| 20260508135214 | 13 | 203 | 0.0 | 19.3 | 0.00 | 0.00 | 0.00 | 43 | 1007.5 |
| 20260508135041 | 13 | 220 | 0.0 | 19.3 | 0.00 | 0.00 | 0.00 | 44 | 1007.4 |
| 20260508135013 | 13 | 235 | 0.0 | 19.3 | 0.00 | 0.00 | 0.00 | 44 | 1007.5 |
| 20260508134844 | 12 | 221 | 0.0 | 16.1 | 0.00 | 0.00 | 0.00 | 43 | 1007.5 |
| 20260508134831 | 12 | 258 | 0.0 | 19.3 | 0.00 | 0.00 | 0.00 | 42 | 1007.5 |
| 20260508134803 | 12 | 226 | 0.0 | 14.5 | 0.00 | 0.00 | 0.00 | 43 | 1007.5 |
| 20260508134506 | 12 | 193 | 0.0 | 17.7 | 0.00 | 0.00 | 0.00 | 43 | 1007.5 |
| 20260508134205 | 12 | 206 | 0.0 | 17.7 | 0.00 | 0.00 | 0.00 | 43 | 1007.5 |
| 20260508134038 | 12 | 257 | 0.0 | 17.7 | 0.00 | 0.00 | 0.00 | 44 | 1007.5 |
| 20260508134005 | 12 | 248 | 0.0 | 17.7 | 0.00 | 0.00 | 0.00 | 44 | 1007.5 |
| 20260508133839 | 12 | 210 | 0.0 | 17.7 | 0.00 | 0.00 | 0.00 | 45 | 1007.6 |
| 20260508133827 | 12 | 197 | 0.0 | 17.7 | 0.00 | 0.00 | 0.00 | 43 | 1007.5 |
| 20260508133758 | 12 | 183 | 0.0 | 17.7 | 0.00 | 0.00 | 0.00 | 45 | 1007.6 |
| 20260508133403 | 12 | 207 | 0.0 | 20.9 | 0.00 | 0.00 | 0.00 | 44 | 1007.6 |
| 20260508133203 | 12 | 214 | 0.0 | 20.9 | 0.00 | 0.00 | 0.00 | 44 | 1007.6 |
| 20260508133036 | 12 | 199 | 0.0 | 20.9 | 0.00 | 0.00 | 0.00 | 43 | 1007.6 |
| 20260508133005 | 12 | 217 | 0.0 | 20.9 | 0.00 | 0.00 | 0.00 | 43 | 1007.6 |
| 20260508132858 | 11 | 214 | 0.0 | 20.9 | 0.00 | 0.00 | 0.00 | 43 | 1007.6 |
| 20260508132838 | 11 | 214 | 0.0 | 20.9 | 0.00 | 0.00 | 0.00 | 43 | 1007.6 |
| 20260508132825 | 12 | 234 | 0.0 | 20.9 | 0.00 | 0.00 | 0.00 | 43 | 1007.6 |
| 20260508132405 | 11 | 259 | 0.0 | 20.9 | 0.00 | 0.00 | 0.00 | 44 | 1007.5 |
| 20260508132135 | 11 | 216 | 0.0 | 20.9 | 0.00 | 0.00 | 0.00 | 44 | 1007.6 |
| 20260508132034 | 11 | 203 | 0.0 | 20.9 | 0.00 | 0.00 | 0.00 | 44 | 1007.6 |
| 20260508131933 | 11 | 202 | 0.0 | 20.9 | 0.00 | 0.00 | 0.00 | 43 | 1007.5 |
| 20260508131836 | 11 | 233 | 0.0 | 20.9 | 0.00 | 0.00 | 0.00 | 44 | 1007.6 |
| 20260508131821 | 11 | 220 | 0.0 | 20.9 | 0.00 | 0.00 | 0.00 | 43 | 1007.6 |
| 20260508131745 | 11 | 233 | 0.0 | 20.9 | 0.00 | 0.00 | 0.00 | 44 | 1007.6 |
| 20260508131331 | 11 | 237 | 0.0 | 20.9 | 0.00 | 0.00 | 0.00 | 45 | 1007.6 |
| 20260508131131 | 11 | 248 | 0.0 | 20.9 | 0.00 | 0.00 | 0.00 | 43 | 1007.8 |
| 20260508131050 | 11 | 195 | 0.0 | 20.9 | 0.00 | 0.00 | 0.00 | 43 | 1007.6 |
| 20260508131031 | 11 | 200 | 0.0 | 20.9 | 0.00 | 0.00 | 0.00 | 43 | 1007.6 |
| 20260508130832 | 11 | 245 | 0.0 | 20.9 | 0.00 | 0.00 | 0.00 | 44 | 1007.6 |
| 20260508130820 | 11 | 195 | 0.0 | 20.9 | 0.00 | 0.00 | 0.00 | 44 | 1007.6 |
| 20260508130749 | 11 | 245 | 0.0 | 20.9 | 0.00 | 0.00 | 0.00 | 44 | 1007.6 |
| 20260508130332 | 11 | 219 | 0.0 | 20.9 | 0.00 | 0.00 | 0.00 | 44 | 1007.6 |
| 20260508130132 | 11 | 207 | 0.0 | 16.1 | 0.00 | 0.00 | 0.00 | 44 | 1007.8 |
| 20260508130034 | 11 | 216 | 0.0 | 14.5 | 0.00 | 0.00 | 0.00 | 46 | 1007.6 |
| 20260508125932 | 11 | 238 | 0.0 | 14.5 | 0.00 | 0.00 | 0.00 | 46 | 1007.6 |
| 20260508125805 | 11 | 234 | 0.0 | 19.3 | 0.00 | 0.00 | 0.00 | 45 | 1007.6 |
| 20260508125743 | 11 | 234 | 0.0 | 19.3 | 0.00 | 0.00 | 0.00 | 45 | 1007.6 |
| 20260508125327 | 11 | 217 | 0.0 | 19.3 | 0.00 | 0.00 | 0.00 | 44 | 1007.6 |
| 20260508125125 | 11 | 212 | 0.0 | 20.9 | 0.00 | 0.00 | 0.00 | 44 | 1007.6 |
| 20260508125035 | 11 | 247 | 0.0 | 20.9 | 0.00 | 0.00 | 0.00 | 45 | 1007.6 |
| 20260508124925 | 10 | 230 | 0.0 | 20.9 | 0.00 | 0.00 | 0.00 | 44 | 1007.8 |
| 20260508124724 | 10 | 245 | 0.0 | 20.9 | 0.00 | 0.00 | 0.00 | 45 | 1007.8 |
| 20260508124526 | 10 | 237 | 0.0 | 20.9 | 0.00 | 0.00 | 0.00 | 45 | 1007.8 |
| 20260508124324 | 10 | 227 | 0.0 | 20.9 | 0.00 | 0.00 | 0.00 | 45 | 1007.8 |
| 20260508124124 | 10 | 200 | 0.0 | 20.9 | 0.00 | 0.00 | 0.00 | 45 | 1007.6 |
| 20260508124040 | 10 | 185 | 0.0 | 20.9 | 0.00 | 0.00 | 0.00 | 45 | 1007.6 |
| 20260508124029 | 10 | 182 | 0.0 | 20.9 | 0.00 | 0.00 | 0.00 | 46 | 1007.8 |
| 20260508123724 | 10 | 183 | 0.0 | 20.9 | 0.00 | 0.00 | 0.00 | 45 | 1007.8 |
| 20260508123526 | 10 | 207 | 0.0 | 20.9 | 0.00 | 0.00 | 0.00 | 45 | 1007.8 |
| 20260508123324 | 10 | 202 | 0.0 | 20.9 | 0.00 | 0.00 | 0.00 | 45 | 1007.8 |
| 20260508123125 | 10 | 207 | 0.0 | 19.3 | 0.00 | 0.00 | 0.00 | 46 | 1007.8 |
| 20260508123035 | 10 | 223 | 0.0 | 19.3 | 0.00 | 0.00 | 0.00 | 46 | 1007.8 |
| 20260508122924 | 10 | 202 | 0.0 | 19.3 | 0.00 | 0.00 | 0.00 | 46 | 1007.8 |
| 20260508122725 | 10 | 199 | 0.0 | 19.3 | 0.00 | 0.00 | 0.00 | 49 | 1007.8 |
| 20260508122525 | 9 | 175 | 0.0 | 19.3 | 0.00 | 0.00 | 0.00 | 46 | 1007.6 |
| 20260508122424 | 9 | 204 | 0.0 | 17.7 | 0.00 | 0.00 | 0.00 | 46 | 1007.8 |
| 20260508122124 | 9 | 233 | 0.0 | 17.7 | 0.00 | 0.00 | 0.00 | 46 | 1007.8 |
| 20260508122033 | 9 | 220 | 0.0 | 17.7 | 0.00 | 0.00 | 0.00 | 46 | 1007.6 |
| 20260508121924 | 9 | 204 | 0.0 | 17.7 | 0.00 | 0.00 | 0.00 | 46 | 1007.6 |
| 20260508121724 | 9 | 228 | 0.0 | 17.7 | 0.00 | 0.00 | 0.00 | 46 | 1007.5 |
| 20260508121526 | 9 | 195 | 0.0 | 17.7 | 0.00 | 0.00 | 0.00 | 47 | 1007.6 |
| 20260508121324 | 9 | 195 | 0.0 | 17.7 | 0.00 | 0.00 | 0.00 | 47 | 1007.6 |
| 20260508121125 | 9 | 220 | 0.0 | 14.5 | 0.00 | 0.00 | 0.00 | 47 | 1007.6 |
| 20260508121032 | 9 | 228 | 0.0 | 14.5 | 0.00 | 0.00 | 0.00 | 47 | 1007.6 |
| 20260508120924 | 9 | 199 | 0.0 | 14.5 | 0.00 | 0.00 | 0.00 | 47 | 1007.6 |
| 20260508120724 | 8 | 226 | 0.0 | 16.1 | 0.00 | 0.00 | 0.00 | 47 | 1007.6 |
| 20260508120526 | 8 | 206 | 0.0 | 16.1 | 0.00 | 0.00 | 0.00 | 47 | 1007.6 |
| 20260508120326 | 8 | 209 | 0.0 | 16.1 | 0.00 | 0.00 | 0.00 | 46 | 1007.5 |
| 20260508120147 | 8 | 226 | 0.0 | 16.1 | 0.00 | 0.00 | 0.00 | 46 | 1007.5 |
| 20260508120135 | 8 | 190 | 0.0 | 11.3 | 0.00 | 0.00 | 0.00 | 46 | 1007.5 |
| 20260508120130 | 8 | 234 | 0.0 | 16.1 | 0.00 | 0.00 | 0.00 | 47 | 1007.6 |
| 20260508120109 | 8 | 234 | 0.0 | 16.1 | 0.00 | 0.00 | 0.00 | 47 | 1007.6 |
| 20260508115809 | 8 | 234 | 0.0 | 11.3 | 0.00 | 0.00 | 0.00 | 47 | 1007.5 |
| 20260508115738 | 8 | 190 | 0.0 | 11.3 | 0.00 | 0.00 | 0.00 | 46 | 1007.5 |
| 20260508115325 | 8 | 207 | 0.0 | 11.3 | 0.00 | 0.00 | 0.00 | 47 | 1007.5 |
| 20260508115126 | 8 | 203 | 0.0 | 17.7 | 0.00 | 0.00 | 0.00 | 47 | 1007.5 |
| 20260508115031 | 8 | 210 | 0.0 | 17.7 | 0.00 | 0.00 | 0.00 | 47 | 1007.6 |
| 20260508114924 | 8 | 202 | 0.0 | 17.7 | 0.00 | 0.00 | 0.00 | 46 | 1007.5 |
| 20260508114825 | 8 | 223 | 0.0 | 17.7 | 0.00 | 0.00 | 0.00 | 47 | 1007.5 |
| 20260508114810 | 8 | 209 | 0.0 | 17.7 | 0.00 | 0.00 | 0.00 | 47 | 1007.5 |
| 20260508114740 | 8 | 223 | 0.0 | 17.7 | 0.00 | 0.00 | 0.00 | 47 | 1007.5 |
| 20260508114429 | 8 | 183 | 0.0 | 17.7 | 0.00 | 0.00 | 0.00 | 47 | 1007.5 |
| 20260508114125 | 8 | 197 | 0.0 | 11.3 | 0.00 | 0.00 | 0.00 | 47 | 1007.5 |
| 20260508114031 | 8 | 212 | 0.0 | 11.3 | 0.00 | 0.00 | 0.00 | 47 | 1007.5 |
| 20260508113924 | 8 | 206 | 0.0 | 11.3 | 0.00 | 0.00 | 0.00 | 47 | 1007.6 |
| 20260508113827 | 8 | 183 | 0.0 | 11.3 | 0.00 | 0.00 | 0.00 | 47 | 1007.5 |
| 20260508113810 | 8 | 190 | 0.0 | 11.3 | 0.00 | 0.00 | 0.00 | 48 | 1007.6 |
| 20260508113738 | 8 | 183 | 0.0 | 11.3 | 0.00 | 0.00 | 0.00 | 47 | 1007.5 |
| 20260508113324 | 8 | 200 | 0.0 | 11.3 | 0.00 | 0.00 | 0.00 | 47 | 1007.5 |
| 20260508113125 | 8 | 196 | 0.0 | 11.3 | 0.00 | 0.00 | 0.00 | 47 | 1007.6 |
| 20260508113031 | 8 | 161 | 0.0 | 11.3 | 0.00 | 0.00 | 0.00 | 48 | 1007.5 |
| 20260508112924 | 8 | 212 | 0.0 | 11.3 | 0.00 | 0.00 | 0.00 | 47 | 1007.6 |
| 20260508112824 | 8 | 200 | 0.0 | 14.5 | 0.00 | 0.00 | 0.00 | 48 | 1007.6 |
| 20260508112809 | 8 | 217 | 0.0 | 11.3 | 0.00 | 0.00 | 0.00 | 47 | 1007.6 |
| 20260508112738 | 8 | 200 | 0.0 | 14.5 | 0.00 | 0.00 | 0.00 | 48 | 1007.6 |
| 20260508112326 | 8 | 203 | 0.0 | 16.1 | 0.00 | 0.00 | 0.00 | 48 | 1007.6 |
| 20260508112125 | 8 | 203 | 0.0 | 16.1 | 0.00 | 0.00 | 0.00 | 48 | 1007.6 |
| 20260508112027 | 8 | 195 | 0.0 | 16.1 | 0.00 | 0.00 | 0.00 | 48 | 1007.6 |
| 20260508111924 | 8 | 190 | 0.0 | 16.1 | 0.00 | 0.00 | 0.00 | 48 | 1007.6 |
| 20260508111825 | 7 | 188 | 0.0 | 16.1 | 0.00 | 0.00 | 0.00 | 48 | 1007.6 |
| 20260508111527 | 7 | 204 | 0.0 | 16.1 | 0.00 | 0.00 | 0.00 | 49 | 1007.5 |
| 20260508111325 | 7 | 219 | 0.0 | 11.3 | 0.00 | 0.00 | 0.00 | 49 | 1007.6 |
| 20260508111124 | 7 | 226 | 0.0 | 11.3 | 0.00 | 0.00 | 0.00 | 49 | 1007.5 |
| 20260508111033 | 7 | 235 | 0.0 | 11.3 | 0.00 | 0.00 | 0.00 | 49 | 1007.5 |
| 20260508110924 | 7 | 220 | 0.0 | 11.3 | 0.00 | 0.00 | 0.00 | 50 | 1007.6 |
| 20260508110726 | 7 | 197 | 0.0 | 11.3 | 0.00 | 0.00 | 0.00 | 50 | 1007.6 |
| 20260508110525 | 7 | 193 | 0.0 | 11.3 | 0.00 | 0.00 | 0.00 | 50 | 1007.6 |
| 20260508110325 | 7 | 200 | 0.0 | 9.7 | 0.00 | 0.00 | 0.00 | 50 | 1007.6 |
| 20260508110225 | 7 | 204 | 0.0 | 9.7 | 0.00 | 0.00 | 0.00 | 50 | 1007.6 |
| 20260508110025 | 7 | 175 | 0.0 | 9.7 | 0.00 | 0.00 | 0.00 | 50 | 1007.5 |
| 20260508105924 | 7 | 186 | 0.0 | 9.7 | 0.00 | 0.00 | 0.00 | 50 | 1007.6 |
| 20260508105724 | 7 | 200 | 0.0 | 9.7 | 0.00 | 0.00 | 0.00 | 51 | 1007.6 |
| 20260508105527 | 7 | 199 | 0.0 | 9.7 | 0.00 | 0.00 | 0.00 | 51 | 1007.5 |
| 20260508105324 | 7 | 200 | 0.0 | 6.4 | 0.00 | 0.00 | 0.00 | 51 | 1007.5 |
| 20260508105124 | 7 | 195 | 0.0 | 6.4 | 0.00 | 0.00 | 0.00 | 51 | 1007.5 |
| 20260508105015 | 7 | 204 | 0.0 | 6.4 | 0.00 | 0.00 | 0.00 | 51 | 1007.6 |
| 20260508104926 | 6 | 212 | 0.0 | 6.4 | 0.00 | 0.00 | 0.00 | 52 | 1007.6 |
| 20260508104725 | 6 | 199 | 0.0 | 6.4 | 0.00 | 0.00 | 0.00 | 52 | 1007.6 |
| 20260508104525 | 6 | 204 | 0.0 | 6.4 | 0.00 | 0.00 | 0.00 | 52 | 1007.6 |
| 20260508104510 | 6 | 204 | 0.0 | 6.4 | 0.00 | 0.00 | 0.00 | 52 | 1007.5 |
| 20260508104324 | 6 | 206 | 0.0 | 8.0 | 0.00 | 0.00 | 0.00 | 52 | 1007.6 |
| 20260508104124 | 6 | 206 | 0.0 | 8.0 | 0.00 | 0.00 | 0.00 | 52 | 1007.6 |
| 20260508104031 | 6 | 206 | 0.0 | 8.0 | 0.00 | 0.00 | 0.00 | 52 | 1007.8 |
| 20260508104012 | 6 | 206 | 0.0 | 8.0 | 0.00 | 0.00 | 0.00 | 52 | 1007.8 |
| 20260508103724 | 6 | 206 | 0.0 | 8.0 | 0.00 | 0.00 | 0.00 | 53 | 1007.6 |
| 20260508103525 | 6 | 206 | 0.0 | 8.0 | 0.00 | 0.00 | 0.00 | 53 | 1007.6 |
| 20260508103509 | 6 | 206 | 0.0 | 8.0 | 0.00 | 0.00 | 0.00 | 53 | 1007.5 |
| 20260508103325 | 6 | 192 | 0.0 | 3.2 | 0.00 | 0.00 | 0.00 | 53 | 1007.6 |
| 20260508103301 | 6 | 192 | 0.0 | 3.2 | 0.00 | 0.00 | 0.00 | 53 | 1007.6 |
| 20260508103238 | 6 | 192 | 0.0 | 3.2 | 0.00 | 0.00 | 0.00 | 53 | 1007.6 |
| 20260508102925 | 6 | 192 | 0.0 | 3.2 | 0.00 | 0.00 | 0.00 | 53 | 1007.6 |
| 20260508102725 | 6 | 192 | 0.0 | 3.2 | 0.00 | 0.00 | 0.00 | 53 | 1007.8 |
| 20260508102504 | 6 | 192 | 0.0 | 3.2 | 0.00 | 0.00 | 0.00 | 53 | 1007.6 |
| 20260508102425 | 6 | 190 | 0.0 | 3.2 | 0.00 | 0.00 | 0.00 | 53 | 1007.6 |
| 20260508102306 | 6 | 190 | 0.0 | 1.6 | 0.00 | 0.00 | 0.00 | 53 | 1007.8 |
| 20260508102241 | 6 | 190 | 0.0 | 1.6 | 0.00 | 0.00 | 0.00 | 54 | 1007.6 |
| 20260508101925 | 6 | 190 | 0.0 | 1.6 | 0.00 | 0.00 | 0.00 | 53 | 1007.8 |
| 20260508101724 | 6 | 190 | 0.0 | 1.6 | 0.00 | 0.00 | 0.00 | 53 | 1007.8 |
| 20260508101525 | 6 | 190 | 0.0 | 3.2 | 0.00 | 0.00 | 0.00 | 53 | 1007.6 |
| 20260508101503 | 6 | 190 | 0.0 | 3.2 | 0.00 | 0.00 | 0.00 | 53 | 1007.8 |
| 20260508101325 | 6 | 190 | 0.0 | 3.2 | 0.00 | 0.00 | 0.00 | 54 | 1007.8 |
| 20260508101303 | 6 | 190 | 0.0 | 3.2 | 0.00 | 0.00 | 0.00 | 54 | 1007.9 |
| 20260508101237 | 6 | 190 | 0.0 | 3.2 | 0.00 | 0.00 | 0.00 | 54 | 1007.8 |
| 20260508100922 | 6 | 190 | 0.0 | 3.2 | 0.00 | 0.00 | 0.00 | 53 | 1007.9 |
| 20260508100721 | 6 | 190 | 0.0 | 3.2 | 0.00 | 0.00 | 0.00 | 53 | 1007.8 |
| 20260508100502 | 6 | 190 | 0.0 | 3.2 | 0.00 | 0.00 | 0.00 | 53 | 1007.8 |
| 20260508100320 | 6 | 190 | 0.0 | 3.2 | 0.00 | 0.00 | 0.00 | 53 | 1007.9 |
| 20260508100122 | 6 | 190 | 0.0 | 3.2 | 0.00 | 0.00 | 0.00 | 53 | 1007.9 |
| 20260508100006 | 6 | 190 | 0.0 | 3.2 | 0.00 | 0.00 | 0.00 | 53 | 1007.6 |
| 20260508095923 | 6 | 190 | 0.0 | 3.2 | 0.00 | 0.00 | 0.00 | 53 | 1007.6 |
| 20260508095809 | 6 | 190 | 0.0 | 1.6 | 0.00 | 0.00 | 0.00 | 53 | 1007.9 |
| 20260508095506 | 6 | 190 | 0.0 | 1.6 | 0.00 | 0.00 | 0.00 | 53 | 1007.8 |
| 20260508095431 | 6 | 190 | 0.0 | 1.6 | 0.00 | 0.00 | 0.00 | 53 | 1007.8 |
| 20260508095307 | 6 | 190 | 0.0 | 1.6 | 0.00 | 0.00 | 0.00 | 53 | 1007.8 |
| 20260508095110 | 6 | 190 | 0.0 | 1.6 | 0.00 | 0.00 | 0.00 | 53 | 1007.8 |
| 20260508094935 | 6 | 190 | 0.0 | 1.6 | 0.00 | 0.00 | 0.00 | 53 | 1007.8 |
| 20260508094910 | 6 | 190 | 0.0 | 1.6 | 0.00 | 0.00 | 0.00 | 53 | 1007.9 |
| 20260508094711 | 6 | 190 | 0.0 | 1.6 | 0.00 | 0.00 | 0.00 | 53 | 1007.9 |
| 20260508094509 | 6 | 190 | 0.0 | 1.6 | 0.00 | 0.00 | 0.00 | 52 | 1007.9 |
| 20260508094436 | 6 | 190 | 0.0 | 1.6 | 0.00 | 0.00 | 0.00 | 53 | 1007.9 |
| 20260508094308 | 6 | 190 | 0.0 | 1.6 | 0.00 | 0.00 | 0.00 | 52 | 1007.9 |
| 20260508094204 | 6 | 190 | 0.0 | 1.6 | 0.00 | 0.00 | 0.00 | 52 | 1007.9 |
| 20260508093909 | 6 | 190 | 0.0 | 1.6 | 0.00 | 0.00 | 0.00 | 52 | 1007.9 |
| 20260508093709 | 6 | 190 | 0.0 | 3.2 | 0.00 | 0.00 | 0.00 | 52 | 1007.9 |
| 20260508093509 | 6 | 190 | 0.0 | 3.2 | 0.00 | 0.00 | 0.00 | 52 | 1007.9 |
| 20260508093437 | 6 | 190 | 0.0 | 3.2 | 0.00 | 0.00 | 0.00 | 52 | 1007.9 |
| 20260508093306 | 6 | 190 | 0.0 | 3.2 | 0.00 | 0.00 | 0.00 | 52 | 1007.9 |
| 20260508093107 | 6 | 190 | 0.0 | 3.2 | 0.00 | 0.00 | 0.00 | 52 | 1007.9 |
| 20260508092934 | 6 | 190 | 0.0 | 4.8 | 0.00 | 0.00 | 0.00 | 52 | 1007.9 |
| 20260508092905 | 6 | 190 | 0.0 | 4.8 | 0.00 | 0.00 | 0.00 | 52 | 1007.9 |
| 20260508092702 | 6 | 190 | 0.0 | 4.8 | 0.00 | 0.00 | 0.00 | 52 | 1008.0 |
| 20260508092435 | 6 | 190 | 0.0 | 6.4 | 0.00 | 0.00 | 0.00 | 52 | 1008.0 |
| 20260508092301 | 6 | 190 | 0.0 | 6.4 | 0.00 | 0.00 | 0.00 | 51 | 1007.9 |
| 20260508092102 | 7 | 190 | 0.0 | 6.4 | 0.00 | 0.00 | 0.00 | 51 | 1007.9 |
| 20260508091929 | 7 | 190 | 0.0 | 6.4 | 0.00 | 0.00 | 0.00 | 52 | 1007.9 |
| 20260508091901 | 7 | 190 | 0.0 | 6.4 | 0.00 | 0.00 | 0.00 | 52 | 1007.9 |
| 20260508091801 | 7 | 190 | 0.0 | 6.4 | 0.00 | 0.00 | 0.00 | 52 | 1007.9 |
| 20260508091427 | 7 | 193 | 0.0 | 4.8 | 0.00 | 0.00 | 0.00 | 52 | 1007.9 |
| 20260508091258 | 7 | 193 | 0.0 | 4.8 | 0.00 | 0.00 | 0.00 | 52 | 1007.9 |
| 20260508091056 | 7 | 193 | 0.0 | 6.4 | 0.00 | 0.00 | 0.00 | 51 | 1007.9 |
| 20260508090925 | 7 | 193 | 0.0 | 6.4 | 0.00 | 0.00 | 0.00 | 51 | 1007.9 |
| 20260508090856 | 7 | 193 | 0.0 | 6.4 | 0.00 | 0.00 | 0.00 | 51 | 1008.0 |
| 20260508090700 | 7 | 197 | 0.0 | 6.4 | 0.00 | 0.00 | 0.00 | 51 | 1007.9 |
| 20260508090455 | 7 | 197 | 0.0 | 6.4 | 0.00 | 0.00 | 0.00 | 51 | 1008.0 |
| 20260508090422 | 7 | 197 | 0.0 | 6.4 | 0.00 | 0.00 | 0.00 | 51 | 1008.0 |
| 20260508090255 | 7 | 196 | 0.0 | 6.4 | 0.00 | 0.00 | 0.00 | 51 | 1008.0 |
| 20260508090156 | 7 | 197 | 0.0 | 9.7 | 0.00 | 0.00 | 0.00 | 51 | 1008.0 |
| 20260508085919 | 7 | 197 | 0.0 | 9.7 | 0.00 | 0.00 | 0.00 | 51 | 1008.0 |
| 20260508085850 | 7 | 199 | 0.0 | 9.7 | 0.00 | 0.00 | 0.00 | 51 | 1008.0 |
| 20260508085648 | 7 | 197 | 0.0 | 9.7 | 0.00 | 0.00 | 0.00 | 51 | 1008.0 |
| 20260508085449 | 7 | 186 | 0.0 | 9.7 | 0.00 | 0.00 | 0.00 | 51 | 1008.0 |
| 20260508085417 | 7 | 186 | 0.0 | 9.7 | 0.00 | 0.00 | 0.00 | 51 | 1008.0 |
| 20260508085247 | 7 | 183 | 0.0 | 9.7 | 0.00 | 0.00 | 0.00 | 51 | 1008.0 |
| 20260508085050 | 7 | 166 | 0.0 | 6.4 | 0.00 | 0.00 | 0.00 | 51 | 1008.0 |
| 20260508084914 | 7 | 182 | 0.0 | 6.4 | 0.00 | 0.00 | 0.00 | 52 | 1007.9 |
| 20260508084850 | 7 | 210 | 0.0 | 6.4 | 0.00 | 0.00 | 0.00 | 52 | 1007.9 |
| 20260508084647 | 7 | 209 | 0.0 | 6.4 | 0.00 | 0.00 | 0.00 | 52 | 1008.0 |
| 20260508084447 | 7 | 207 | 0.0 | 6.4 | 0.00 | 0.00 | 0.00 | 52 | 1007.9 |
| 20260508084411 | 7 | 216 | 0.0 | 6.4 | 0.00 | 0.00 | 0.00 | 52 | 1008.0 |
| 20260508084343 | 7 | 203 | 0.0 | 6.4 | 0.00 | 0.00 | 0.00 | 52 | 1008.0 |
| 20260508084044 | 6 | 203 | 0.0 | 6.4 | 0.00 | 0.00 | 0.00 | 52 | 1007.9 |
| 20260508083908 | 6 | 202 | 0.0 | 6.4 | 0.00 | 0.00 | 0.00 | 52 | 1008.0 |
| 20260508083846 | 6 | 202 | 0.0 | 6.4 | 0.00 | 0.00 | 0.00 | 52 | 1008.0 |
| 20260508083644 | 6 | 202 | 0.0 | 6.4 | 0.00 | 0.00 | 0.00 | 52 | 1007.9 |
| 20260508083443 | 6 | 200 | 0.0 | 6.4 | 0.00 | 0.00 | 0.00 | 52 | 1008.0 |
| 20260508083409 | 6 | 203 | 0.0 | 4.8 | 0.00 | 0.00 | 0.00 | 52 | 1008.0 |
| 20260508083241 | 6 | 203 | 0.0 | 4.8 | 0.00 | 0.00 | 0.00 | 52 | 1008.0 |
| 20260508083210 | 6 | 203 | 0.0 | 4.8 | 0.00 | 0.00 | 0.00 | 53 | 1007.9 |
| 20260508083147 | 6 | 203 | 0.0 | 4.8 | 0.00 | 0.00 | 0.00 | 52 | 1008.0 |
| 20260508082841 | 6 | 203 | 0.0 | 4.8 | 0.00 | 0.00 | 0.00 | 53 | 1007.9 |
| 20260508082734 | 6 | 216 | 0.0 | 3.2 | 0.00 | 0.00 | 0.00 | 53 | 1008.1 |
| 20260508082439 | 6 | 219 | 0.0 | 3.2 | 0.00 | 0.00 | 0.00 | 53 | 1008.1 |
| 20260508082407 | 6 | 179 | 0.0 | 3.2 | 0.00 | 0.00 | 0.00 | 53 | 1008.0 |
| 20260508082238 | 6 | 178 | 0.0 | 4.8 | 0.00 | 0.00 | 0.00 | 53 | 1008.0 |
| 20260508082207 | 6 | 175 | 0.0 | 4.8 | 0.00 | 0.00 | 0.00 | 54 | 1008.1 |
| 20260508082141 | 6 | 178 | 0.0 | 4.8 | 0.00 | 0.00 | 0.00 | 53 | 1008.0 |
| 20260508081837 | 6 | 175 | 0.0 | 4.8 | 0.00 | 0.00 | 0.00 | 53 | 1008.1 |
| 20260508081638 | 6 | 172 | 0.0 | 4.8 | 0.00 | 0.00 | 0.00 | 54 | 1008.1 |
| 20260508081437 | 6 | 173 | 0.0 | 4.8 | 0.00 | 0.00 | 0.00 | 54 | 1008.0 |
| 20260508081405 | 6 | 173 | 0.0 | 4.8 | 0.00 | 0.00 | 0.00 | 54 | 1008.2 |
| 20260508081241 | 6 | 186 | 0.0 | 3.2 | 0.00 | 0.00 | 0.00 | 55 | 1008.0 |
| 20260508081235 | 6 | 172 | 0.0 | 4.8 | 0.00 | 0.00 | 0.00 | 54 | 1008.1 |
| 20260508081203 | 6 | 192 | 0.0 | 3.2 | 0.00 | 0.00 | 0.00 | 55 | 1008.1 |
| 20260508080837 | 6 | 190 | 0.0 | 3.2 | 0.00 | 0.00 | 0.00 | 55 | 1008.1 |
| 20260508080635 | 6 | 190 | 0.0 | 3.2 | 0.00 | 0.00 | 0.00 | 55 | 1008.1 |
| 20260508080436 | 6 | 190 | 0.0 | 3.2 | 0.00 | 0.00 | 0.00 | 55 | 1008.1 |
| 20260508080404 | 6 | 190 | 0.0 | 3.2 | 0.00 | 0.00 | 0.00 | 55 | 1008.2 |
| 20260508080333 | 6 | 190 | 0.0 | 3.2 | 0.00 | 0.00 | 0.00 | 55 | 1008.2 |
| 20260508080203 | 6 | 190 | 0.0 | 3.2 | 0.00 | 0.00 | 0.00 | 55 | 1008.2 |
| 20260508080138 | 6 | 190 | 0.0 | 3.2 | 0.00 | 0.00 | 0.00 | 55 | 1008.2 |
| 20260508075830 | 6 | 190 | 0.0 | 3.2 | 0.00 | 0.00 | 0.00 | 55 | 1008.2 |
| 20260508075632 | 6 | 190 | 0.0 | 3.2 | 0.00 | 0.00 | 0.00 | 55 | 1008.2 |
| 20260508075402 | 6 | 190 | 0.0 | 3.2 | 0.00 | 0.00 | 0.00 | 55 | 1008.2 |
| 20260508075223 | 6 | 190 | 0.0 | 3.2 | 0.00 | 0.00 | 0.00 | 55 | 1008.2 |
| 20260508075201 | 6 | 190 | 0.0 | 3.2 | 0.00 | 0.00 | 0.00 | 55 | 1008.3 |
| 20260508075137 | 6 | 190 | 0.0 | 3.2 | 0.00 | 0.00 | 0.00 | 55 | 1008.2 |
| 20260508074823 | 6 | 190 | 0.0 | 3.2 | 0.00 | 0.00 | 0.00 | 56 | 1008.3 |
| 20260508074730 | 6 | 189 | 0.0 | 1.6 | 0.00 | 0.00 | 0.00 | 56 | 1008.2 |
| 20260508074404 | 6 | 189 | 0.0 | 3.2 | 0.00 | 0.00 | 0.00 | 55 | 1008.3 |
| 20260508074209 | 6 | 189 | 0.0 | 3.2 | 0.00 | 0.00 | 0.00 | 55 | 1008.3 |
| 20260508074158 | 6 | 189 | 0.0 | 3.2 | 0.00 | 0.00 | 0.00 | 55 | 1008.2 |
| 20260508074134 | 6 | 189 | 0.0 | 3.2 | 0.00 | 0.00 | 0.00 | 56 | 1008.3 |
| 20260508073808 | 6 | 189 | 0.0 | 3.2 | 0.00 | 0.00 | 0.00 | 55 | 1008.3 |
| 20260508073607 | 6 | 189 | 0.0 | 3.2 | 0.00 | 0.00 | 0.00 | 55 | 1008.4 |
| 20260508073401 | 6 | 189 | 0.0 | 3.2 | 0.00 | 0.00 | 0.00 | 55 | 1008.3 |
| 20260508073232 | 6 | 189 | 0.0 | 3.2 | 0.00 | 0.00 | 0.00 | 55 | 1008.3 |
| 20260508073207 | 6 | 189 | 0.0 | 3.2 | 0.00 | 0.00 | 0.00 | 55 | 1008.4 |
| 20260508073157 | 6 | 189 | 0.0 | 3.2 | 0.00 | 0.00 | 0.00 | 55 | 1008.4 |
| 20260508072806 | 6 | 189 | 0.0 | 3.2 | 0.00 | 0.00 | 0.00 | 55 | 1008.3 |
| 20260508072609 | 6 | 189 | 0.0 | 3.2 | 0.00 | 0.00 | 0.00 | 55 | 1008.4 |
| 20260508072400 | 6 | 189 | 0.0 | 3.2 | 0.00 | 0.00 | 0.00 | 55 | 1008.4 |
| 20260508072232 | 6 | 189 | 0.0 | 3.2 | 0.00 | 0.00 | 0.00 | 55 | 1008.5 |
| 20260508072206 | 6 | 189 | 0.0 | 3.2 | 0.00 | 0.00 | 0.00 | 55 | 1008.4 |
| 20260508072145 | 6 | 189 | 0.0 | 3.2 | 0.00 | 0.00 | 0.00 | 55 | 1008.4 |
| 20260508071804 | 6 | 189 | 0.0 | 3.2 | 0.00 | 0.00 | 0.00 | 55 | 1008.4 |
| 20260508071542 | 6 | 189 | 0.0 | 3.2 | 0.00 | 0.00 | 0.00 | 55 | 1008.4 |
| 20260508071342 | 6 | 189 | 0.0 | 4.8 | 0.00 | 0.00 | 0.00 | 55 | 1008.4 |
| 20260508071141 | 6 | 189 | 0.0 | 4.8 | 0.00 | 0.00 | 0.00 | 55 | 1008.5 |
| 20260508070942 | 6 | 188 | 0.0 | 4.8 | 0.00 | 0.00 | 0.00 | 55 | 1008.5 |
| 20260508070835 | 6 | 188 | 0.0 | 4.8 | 0.00 | 0.00 | 0.00 | 55 | 1008.5 |
| 20260508070740 | 6 | 186 | 0.0 | 4.8 | 0.00 | 0.00 | 0.00 | 56 | 1008.5 |
| 20260508070541 | 6 | 186 | 0.0 | 4.8 | 0.00 | 0.00 | 0.00 | 56 | 1008.5 |
| 20260508070442 | 6 | 186 | 0.0 | 3.2 | 0.00 | 0.00 | 0.00 | 56 | 1008.5 |
| 20260508070334 | 6 | 186 | 0.0 | 3.2 | 0.00 | 0.00 | 0.00 | 56 | 1008.5 |
| 20260508070140 | 6 | 185 | 0.0 | 3.2 | 0.00 | 0.00 | 0.00 | 56 | 1008.5 |
| 20260508065940 | 6 | 185 | 0.0 | 3.2 | 0.00 | 0.00 | 0.00 | 56 | 1008.5 |
| 20260508065834 | 6 | 185 | 0.0 | 3.2 | 0.00 | 0.00 | 0.00 | 56 | 1008.5 |
| 20260508065738 | 6 | 185 | 0.0 | 3.2 | 0.00 | 0.00 | 0.00 | 56 | 1008.6 |
| 20260508065543 | 6 | 183 | 0.0 | 3.2 | 0.00 | 0.00 | 0.00 | 56 | 1008.6 |
| 20260508065335 | 6 | 183 | 0.0 | 3.2 | 0.00 | 0.00 | 0.00 | 57 | 1008.5 |
| 20260508065136 | 6 | 186 | 0.0 | 3.2 | 0.00 | 0.00 | 0.00 | 57 | 1008.6 |
| 20260508064934 | 6 | 186 | 0.0 | 3.2 | 0.00 | 0.00 | 0.00 | 57 | 1008.6 |
| 20260508064845 | 6 | 186 | 0.0 | 3.2 | 0.00 | 0.00 | 0.00 | 56 | 1008.6 |
| 20260508064835 | 6 | 186 | 0.0 | 3.2 | 0.00 | 0.00 | 0.00 | 57 | 1008.6 |
| 20260508064537 | 6 | 186 | 0.0 | 3.2 | 0.00 | 0.00 | 0.00 | 56 | 1008.6 |
| 20260508064333 | 6 | 186 | 0.0 | 3.2 | 0.00 | 0.00 | 0.00 | 57 | 1008.6 |
| 20260508064234 | 6 | 186 | 0.0 | 3.2 | 0.00 | 0.00 | 0.00 | 57 | 1008.6 |
| 20260508063932 | 6 | 186 | 0.0 | 3.2 | 0.00 | 0.00 | 0.00 | 57 | 1008.7 |
| 20260508063832 | 6 | 186 | 0.0 | 3.2 | 0.00 | 0.00 | 0.00 | 57 | 1008.7 |
| 20260508063732 | 6 | 186 | 0.0 | 3.2 | 0.00 | 0.00 | 0.00 | 57 | 1008.6 |
| 20260508063636 | 6 | 186 | 0.0 | 1.6 | 0.00 | 0.00 | 0.00 | 57 | 1008.7 |
| 20260508063620 | 6 | 186 | 0.0 | 1.6 | 0.00 | 0.00 | 0.00 | 57 | 1008.8 |
| 20260508063548 | 6 | 186 | 0.0 | 1.6 | 0.00 | 0.00 | 0.00 | 57 | 1008.7 |
| 20260508063108 | 6 | 186 | 0.0 | 1.6 | 0.00 | 0.00 | 0.00 | 57 | 1008.7 |
| 20260508062908 | 6 | 186 | 0.0 | 1.6 | 0.00 | 0.00 | 0.00 | 56 | 1008.7 |
| 20260508062812 | 6 | 186 | 0.0 | 1.6 | 0.00 | 0.00 | 0.00 | 56 | 1008.8 |
| 20260508062713 | 6 | 186 | 0.0 | 1.6 | 0.00 | 0.00 | 0.00 | 56 | 1008.7 |
| 20260508062708 | 6 | 186 | 0.0 | 1.6 | 0.00 | 0.00 | 0.00 | 56 | 1008.7 |
| 20260508062622 | 6 | 186 | 0.0 | 1.6 | 0.00 | 0.00 | 0.00 | 56 | 1008.8 |
| 20260508062309 | 6 | 186 | 0.0 | 1.6 | 0.00 | 0.00 | 0.00 | 56 | 1008.8 |
| 20260508062107 | 6 | 186 | 0.0 | 3.2 | 0.00 | 0.00 | 0.00 | 56 | 1008.8 |
| 20260508061908 | 6 | 186 | 0.0 | 4.8 | 0.00 | 0.00 | 0.00 | 56 | 1008.8 |
| 20260508061810 | 6 | 186 | 0.0 | 4.8 | 0.00 | 0.00 | 0.00 | 57 | 1008.8 |
| 20260508061708 | 6 | 186 | 0.0 | 4.8 | 0.00 | 0.00 | 0.00 | 57 | 1008.8 |
| 20260508061613 | 6 | 186 | 0.0 | 4.8 | 0.00 | 0.00 | 0.00 | 58 | 1008.9 |
| 20260508061553 | 6 | 186 | 0.0 | 4.8 | 0.00 | 0.00 | 0.00 | 57 | 1008.8 |
| 20260508061309 | 6 | 186 | 0.0 | 4.8 | 0.00 | 0.00 | 0.00 | 58 | 1008.9 |
| 20260508061105 | 6 | 186 | 0.0 | 4.8 | 0.00 | 0.00 | 0.00 | 58 | 1008.9 |
| 20260508061004 | 6 | 185 | 0.0 | 1.6 | 0.00 | 0.00 | 0.00 | 57 | 1008.9 |
| 20260508060811 | 6 | 185 | 0.0 | 1.6 | 0.00 | 0.00 | 0.00 | 57 | 1008.9 |
| 20260508060705 | 6 | 185 | 0.0 | 1.6 | 0.00 | 0.00 | 0.00 | 57 | 1008.9 |
| 20260508060612 | 6 | 185 | 0.0 | 1.6 | 0.00 | 0.00 | 0.00 | 57 | 1008.8 |
| 20260508060550 | 6 | 185 | 0.0 | 1.6 | 0.00 | 0.00 | 0.00 | 57 | 1008.8 |
| 20260508060303 | 6 | 185 | 0.0 | 1.6 | 0.00 | 0.00 | 0.00 | 57 | 1008.9 |
| 20260508060209 | 6 | 185 | 0.0 | 1.6 | 0.00 | 0.00 | 0.00 | 56 | 1008.9 |
| 20260508055904 | 6 | 185 | 0.0 | 1.6 | 0.00 | 0.00 | 0.00 | 57 | 1008.9 |
| 20260508055807 | 6 | 185 | 0.0 | 1.6 | 0.00 | 0.00 | 0.00 | 57 | 1008.9 |
| 20260508055704 | 6 | 185 | 0.0 | 1.6 | 0.00 | 0.00 | 0.00 | 57 | 1008.9 |
| 20260508055509 | 6 | 185 | 0.0 | 3.2 | 0.00 | 0.00 | 0.00 | 57 | 1008.9 |
| 20260508055306 | 6 | 185 | 0.0 | 3.2 | 0.00 | 0.00 | 0.00 | 57 | 1009.0 |
| 20260508055253 | 6 | 185 | 0.0 | 3.2 | 0.00 | 0.00 | 0.00 | 57 | 1009.0 |
| 20260508055056 | 6 | 185 | 0.0 | 3.2 | 0.00 | 0.00 | 0.00 | 57 | 1008.9 |
| 20260508054853 | 6 | 185 | 0.0 | 3.2 | 0.00 | 0.00 | 0.00 | 57 | 1008.9 |
| 20260508054805 | 6 | 185 | 0.0 | 3.2 | 0.00 | 0.00 | 0.00 | 58 | 1008.9 |
| 20260508054652 | 6 | 185 | 0.0 | 3.2 | 0.00 | 0.00 | 0.00 | 58 | 1008.9 |
| 20260508054549 | 6 | 185 | 0.0 | 4.8 | 0.00 | 0.00 | 0.00 | 58 | 1009.0 |
| 20260508054305 | 6 | 185 | 0.0 | 4.8 | 0.00 | 0.00 | 0.00 | 58 | 1009.0 |
| 20260508054252 | 6 | 185 | 0.0 | 4.8 | 0.00 | 0.00 | 0.00 | 58 | 1009.0 |
| 20260508054049 | 6 | 185 | 0.0 | 4.8 | 0.00 | 0.00 | 0.00 | 58 | 1009.0 |
| 20260508053848 | 6 | 185 | 0.0 | 4.8 | 0.00 | 0.00 | 0.00 | 58 | 1009.1 |
| 20260508053805 | 6 | 185 | 0.0 | 4.8 | 0.00 | 0.00 | 0.00 | 58 | 1009.1 |
| 20260508053647 | 6 | 185 | 0.0 | 4.8 | 0.00 | 0.00 | 0.00 | 58 | 1009.0 |
| 20260508053447 | 6 | 185 | 0.0 | 4.8 | 0.00 | 0.00 | 0.00 | 58 | 1009.1 |
| 20260508053306 | 6 | 185 | 0.0 | 4.8 | 0.00 | 0.00 | 0.00 | 59 | 1009.0 |
| 20260508053249 | 6 | 172 | 0.0 | 3.2 | 0.00 | 0.00 | 0.00 | 59 | 1009.1 |
| 20260508053044 | 6 | 123 | 0.0 | 3.2 | 0.00 | 0.00 | 0.00 | 59 | 1009.1 |
| 20260508052944 | 6 | 123 | 0.0 | 3.2 | 0.00 | 0.00 | 0.00 | 60 | 1009.0 |
| 20260508052807 | 6 | 123 | 0.0 | 3.2 | 0.00 | 0.00 | 0.00 | 60 | 1009.0 |
| 20260508052645 | 6 | 123 | 0.0 | 3.2 | 0.00 | 0.00 | 0.00 | 61 | 1009.1 |
| 20260508052442 | 6 | 123 | 0.0 | 1.6 | 0.00 | 0.00 | 0.00 | 61 | 1009.1 |
| 20260508052343 | 6 | 123 | 0.0 | 1.6 | 0.00 | 0.00 | 0.00 | 62 | 1009.2 |
| 20260508052309 | 6 | 123 | 0.0 | 1.6 | 0.00 | 0.00 | 0.00 | 61 | 1009.1 |
| 20260508052040 | 6 | 123 | 0.0 | 3.2 | 0.00 | 0.00 | 0.00 | 63 | 1009.1 |
| 20260508051839 | 6 | 123 | 0.0 | 3.2 | 0.00 | 0.00 | 0.00 | 64 | 1009.0 |
| 20260508051808 | 6 | 123 | 0.0 | 3.2 | 0.00 | 0.00 | 0.00 | 64 | 1009.0 |
| 20260508051640 | 6 | 123 | 0.0 | 3.2 | 0.00 | 0.00 | 0.00 | 64 | 1009.1 |
| 20260508051438 | 6 | 123 | 0.0 | 3.2 | 0.00 | 0.00 | 0.00 | 65 | 1009.1 |
| 20260508051308 | 5 | 123 | 0.0 | 3.2 | 0.00 | 0.00 | 0.00 | 66 | 1008.9 |
| 20260508051237 | 5 | 123 | 0.0 | 3.2 | 0.00 | 0.00 | 0.00 | 66 | 1009.1 |
| 20260508051117 | 5 | 123 | 0.0 | 1.6 | 0.00 | 0.00 | 0.00 | 67 | 1009.0 |
| 20260508051103 | 5 | 123 | 0.0 | 1.6 | 0.00 | 0.00 | 0.00 | 67 | 1009.1 |
| 20260508051030 | 5 | 123 | 0.0 | 1.6 | 0.00 | 0.00 | 0.00 | 67 | 1009.0 |
| 20260508050737 | 5 | 123 | 0.0 | 1.6 | 0.00 | 0.00 | 0.00 | 67 | 1009.1 |
| 20260508050441 | 5 | 123 | 0.0 | 1.6 | 0.00 | 0.00 | 0.00 | 67 | 1009.1 |
| 20260508050307 | 5 | 123 | 0.0 | 0.0 | 0.00 | 0.00 | 0.00 | 68 | 1009.2 |
| 20260508050230 | 5 | 123 | 0.0 | 0.0 | 0.00 | 0.00 | 0.00 | 69 | 1009.2 |
| 20260508050033 | 5 | 123 | 0.0 | 0.0 | 0.00 | 0.00 | 0.00 | 73 | 1009.2 |
| 20260508045807 | 5 | 123 | 0.0 | 0.0 | 0.00 | 0.00 | 0.00 | 73 | 1009.2 |
| 20260508045632 | 5 | 123 | 0.0 | 0.0 | 0.00 | 0.00 | 0.00 | 73 | 1009.1 |
| 20260508045423 | 5 | 123 | 0.0 | 0.0 | 0.00 | 0.00 | 0.00 | 72 | 1009.2 |
| 20260508045307 | 5 | 123 | 0.0 | 0.0 | 0.00 | 0.00 | 0.00 | 72 | 1009.2 |
| 20260508045224 | 5 | 123 | 0.0 | 0.0 | 0.00 | 0.00 | 0.00 | 72 | 1009.2 |
| 20260508045122 | 5 | 123 | 0.0 | 0.0 | 0.00 | 0.00 | 0.00 | 72 | 1009.2 |
| 20260508044808 | 5 | 123 | 0.0 | 0.0 | 0.00 | 0.00 | 0.00 | 72 | 1009.2 |
| 20260508044622 | 5 | 123 | 0.0 | 0.0 | 0.00 | 0.00 | 0.00 | 72 | 1009.3 |
| 20260508044418 | 5 | 123 | 0.0 | 0.0 | 0.00 | 0.00 | 0.00 | 72 | 1009.3 |
| 20260508044307 | 5 | 123 | 0.0 | 0.0 | 0.00 | 0.00 | 0.00 | 73 | 1009.2 |
| 20260508044218 | 5 | 123 | 0.0 | 0.0 | 0.00 | 0.00 | 0.00 | 73 | 1009.3 |
| 20260508044017 | 5 | 123 | 0.0 | 0.0 | 0.00 | 0.00 | 0.00 | 73 | 1009.3 |
| 20260508043807 | 5 | 123 | 0.0 | 0.0 | 0.00 | 0.00 | 0.00 | 72 | 1009.2 |
| 20260508043616 | 5 | 123 | 0.0 | 0.0 | 0.00 | 0.00 | 0.00 | 72 | 1009.3 |
| 20260508043417 | 5 | 123 | 0.0 | 0.0 | 0.00 | 0.00 | 0.00 | 71 | 1009.2 |
| 20260508043306 | 5 | 123 | 0.0 | 0.0 | 0.00 | 0.00 | 0.00 | 70 | 1009.3 |
| 20260508043216 | 5 | 123 | 0.0 | 0.0 | 0.00 | 0.00 | 0.00 | 70 | 1009.3 |
| 20260508043114 | 5 | 123 | 0.0 | 0.0 | 0.00 | 0.00 | 0.00 | 69 | 1009.3 |
| 20260508042806 | 5 | 123 | 0.0 | 0.0 | 0.00 | 0.00 | 0.00 | 69 | 1009.3 |
| 20260508042618 | 5 | 123 | 0.0 | 0.0 | 0.00 | 0.00 | 0.00 | 69 | 1009.3 |
| 20260508042413 | 5 | 123 | 0.0 | 0.0 | 0.00 | 0.00 | 0.00 | 69 | 1009.3 |
| 20260508042308 | 5 | 123 | 0.0 | 0.0 | 0.00 | 0.00 | 0.00 | 70 | 1009.4 |
| 20260508042208 | 5 | 123 | 0.0 | 0.0 | 0.00 | 0.00 | 0.00 | 70 | 1009.4 |
| 20260508042009 | 5 | 123 | 0.0 | 0.0 | 0.00 | 0.00 | 0.00 | 70 | 1009.4 |
| 20260508041809 | 5 | 123 | 0.0 | 0.0 | 0.00 | 0.00 | 0.00 | 70 | 1009.4 |
| 20260508041609 | 5 | 123 | 0.0 | 0.0 | 0.00 | 0.00 | 0.00 | 70 | 1009.4 |
| 20260508041509 | 5 | 123 | 0.0 | 0.0 | 0.00 | 0.00 | 0.00 | 69 | 1009.5 |
| 20260508041307 | 5 | 123 | 0.0 | 0.0 | 0.00 | 0.00 | 0.00 | 69 | 1009.5 |
| 20260508041210 | 5 | 123 | 0.0 | 0.0 | 0.00 | 0.00 | 0.00 | 69 | 1009.4 |
| 20260508041010 | 5 | 123 | 0.0 | 0.0 | 0.00 | 0.00 | 0.00 | 68 | 1009.5 |
| 20260508040810 | 5 | 123 | 0.0 | 0.0 | 0.00 | 0.00 | 0.00 | 67 | 1009.4 |
| 20260508040609 | 5 | 123 | 0.0 | 0.0 | 0.00 | 0.00 | 0.00 | 67 | 1009.4 |
| 20260508040414 | 5 | 123 | 0.0 | 0.0 | 0.00 | 0.00 | 0.00 | 66 | 1009.4 |
| 20260508040305 | 5 | 123 | 0.0 | 0.0 | 0.00 | 0.00 | 0.00 | 67 | 1009.5 |
| 20260508040210 | 5 | 123 | 0.0 | 0.0 | 0.00 | 0.00 | 0.00 | 67 | 1009.5 |
| 20260508040010 | 5 | 123 | 0.0 | 0.0 | 0.00 | 0.00 | 0.00 | 67 | 1009.4 |
| 20260508035803 | 5 | 123 | 0.0 | 0.0 | 0.00 | 0.00 | 0.00 | 66 | 1009.5 |
| 20260508035622 | 5 | 123 | 0.0 | 0.0 | 0.00 | 0.00 | 0.00 | 66 | 1009.5 |
| 20260508035412 | 5 | 123 | 0.0 | 0.0 | 0.00 | 0.00 | 0.00 | 66 | 1009.5 |
| 20260508035316 | 5 | 123 | 0.0 | 0.0 | 0.00 | 0.00 | 0.00 | 66 | 1009.5 |
| 20260508035306 | 5 | 123 | 0.0 | 0.0 | 0.00 | 0.00 | 0.00 | 66 | 1009.5 |
| 20260508035009 | 5 | 123 | 0.0 | 0.0 | 0.00 | 0.00 | 0.00 | 66 | 1009.6 |
| 20260508034802 | 5 | 123 | 0.0 | 0.0 | 0.00 | 0.00 | 0.00 | 66 | 1009.6 |
| 20260508034609 | 5 | 123 | 0.0 | 0.0 | 0.00 | 0.00 | 0.00 | 64 | 1009.4 |
| 20260508034600 | 5 | 123 | 0.0 | 0.0 | 0.00 | 0.00 | 0.00 | 64 | 1009.6 |
| 20260508034539 | 5 | 123 | 0.0 | 0.0 | 0.00 | 0.00 | 0.00 | 64 | 1009.5 |
| 20260508034210 | 5 | 123 | 0.0 | 0.0 | 0.00 | 0.00 | 0.00 | 64 | 1009.6 |
| 20260508034009 | 5 | 123 | 0.0 | 0.0 | 0.00 | 0.00 | 0.00 | 65 | 1009.5 |
| 20260508033802 | 5 | 123 | 0.0 | 0.0 | 0.00 | 0.00 | 0.00 | 65 | 1009.6 |
| 20260508033712 | 5 | 123 | 0.0 | 0.0 | 0.00 | 0.00 | 0.00 | 63 | 1009.5 |
| 20260508033602 | 5 | 123 | 0.0 | 0.0 | 0.00 | 0.00 | 0.00 | 63 | 1009.5 |
| 20260508033538 | 5 | 123 | 0.0 | 0.0 | 0.00 | 0.00 | 0.00 | 63 | 1009.6 |
| 20260508033209 | 5 | 123 | 0.0 | 0.0 | 0.00 | 0.00 | 0.00 | 63 | 1009.5 |
| 20260508033009 | 5 | 123 | 0.0 | 0.0 | 0.00 | 0.00 | 0.00 | 63 | 1009.6 |
| 20260508032802 | 6 | 123 | 0.0 | 0.0 | 0.00 | 0.00 | 0.00 | 64 | 1009.6 |
| 20260508032612 | 6 | 123 | 0.0 | 0.0 | 0.00 | 0.00 | 0.00 | 64 | 1009.6 |
| 20260508032602 | 6 | 123 | 0.0 | 0.0 | 0.00 | 0.00 | 0.00 | 63 | 1009.7 |
| 20260508032540 | 6 | 123 | 0.0 | 0.0 | 0.00 | 0.00 | 0.00 | 63 | 1009.6 |
| 20260508032209 | 6 | 123 | 0.0 | 0.0 | 0.00 | 0.00 | 0.00 | 63 | 1009.7 |
| 20260508032009 | 6 | 123 | 0.0 | 0.0 | 0.00 | 0.00 | 0.00 | 63 | 1009.6 |
| 20260508031801 | 6 | 123 | 0.0 | 0.0 | 0.00 | 0.00 | 0.00 | 63 | 1009.6 |
| 20260508031609 | 6 | 123 | 0.0 | 0.0 | 0.00 | 0.00 | 0.00 | 62 | 1009.6 |
| 20260508031411 | 6 | 123 | 0.0 | 0.0 | 0.00 | 0.00 | 0.00 | 62 | 1009.6 |
| 20260508031301 | 6 | 123 | 0.0 | 0.0 | 0.00 | 0.00 | 0.00 | 62 | 1009.6 |
| 20260508031210 | 6 | 123 | 0.0 | 0.0 | 0.00 | 0.00 | 0.00 | 62 | 1009.6 |
| 20260508031111 | 6 | 123 | 0.0 | 0.0 | 0.00 | 0.00 | 0.00 | 62 | 1009.6 |
| 20260508030801 | 6 | 123 | 0.0 | 0.0 | 0.00 | 0.00 | 0.00 | 62 | 1009.6 |
| 20260508030609 | 6 | 123 | 0.0 | 0.0 | 0.00 | 0.00 | 0.00 | 61 | 1009.6 |
| 20260508030410 | 6 | 123 | 0.0 | 0.0 | 0.00 | 0.00 | 0.00 | 61 | 1009.6 |
| 20260508030302 | 6 | 123 | 0.0 | 0.0 | 0.00 | 0.00 | 0.00 | 60 | 1009.8 |
| 20260508030209 | 6 | 123 | 0.0 | 0.0 | 0.00 | 0.00 | 0.00 | 60 | 1009.8 |
| 20260508030133 | 6 | 123 | 0.0 | 0.0 | 0.00 | 0.00 | 0.00 | 60 | 1009.7 |
| 20260508030115 | 6 | 123 | 0.0 | 0.0 | 0.00 | 0.00 | 0.00 | 60 | 1009.7 |
| 20260508030027 | 6 | 123 | 0.0 | 0.0 | 0.00 | 0.00 | 0.00 | 60 | 1009.7 |
| 20260508025609 | 6 | 123 | 0.0 | 0.0 | 0.00 | 0.00 | 0.00 | 59 | 1009.7 |
| 20260508025508 | 7 | 123 | 0.0 | 0.0 | 0.00 | 0.00 | 0.00 | 59 | 1009.7 |
| 20260508025301 | 7 | 123 | 0.0 | 0.0 | 0.00 | 0.00 | 0.00 | 59 | 1009.7 |
| 20260508025210 | 7 | 123 | 0.0 | 0.0 | 0.00 | 0.00 | 0.00 | 58 | 1009.7 |
| 20260508025118 | 7 | 123 | 0.0 | 0.0 | 0.00 | 0.00 | 0.00 | 57 | 1009.7 |
| 20260508025059 | 7 | 123 | 0.0 | 0.0 | 0.00 | 0.00 | 0.00 | 58 | 1009.7 |
| 20260508025028 | 7 | 123 | 0.0 | 0.0 | 0.00 | 0.00 | 0.00 | 57 | 1009.7 |
| 20260508024609 | 7 | 123 | 0.0 | 0.0 | 0.00 | 0.00 | 0.00 | 57 | 1009.7 |
| 20260508024410 | 7 | 123 | 0.0 | 0.0 | 0.00 | 0.00 | 0.00 | 57 | 1009.6 |
| 20260508024302 | 7 | 123 | 0.0 | 0.0 | 0.00 | 0.00 | 0.00 | 56 | 1009.6 |
| 20260508024209 | 7 | 123 | 0.0 | 0.0 | 0.00 | 0.00 | 0.00 | 56 | 1009.6 |
| 20260508024201 | 7 | 123 | 0.0 | 0.0 | 0.00 | 0.00 | 0.00 | 55 | 1009.6 |
| 20260508024120 | 7 | 123 | 0.0 | 0.0 | 0.00 | 0.00 | 0.00 | 55 | 1009.6 |
| 20260508024031 | 7 | 123 | 0.0 | 0.0 | 0.00 | 0.00 | 0.00 | 55 | 1009.6 |
| 20260508023609 | 7 | 123 | 0.0 | 0.0 | 0.00 | 0.00 | 0.00 | 55 | 1009.6 |
| 20260508023409 | 7 | 123 | 0.0 | 0.0 | 0.00 | 0.00 | 0.00 | 54 | 1009.7 |
| 20260508023258 | 8 | 123 | 0.0 | 0.0 | 0.00 | 0.00 | 0.00 | 53 | 1009.6 |
| 20260508023209 | 8 | 123 | 0.0 | 0.0 | 0.00 | 0.00 | 0.00 | 53 | 1009.6 |
| 20260508023009 | 8 | 123 | 0.0 | 0.0 | 0.00 | 0.00 | 0.00 | 53 | 1009.6 |
| 20260508022809 | 8 | 123 | 0.0 | 0.0 | 0.00 | 0.00 | 0.00 | 53 | 1009.5 |
| 20260508022754 | 8 | 123 | 0.0 | 0.0 | 0.00 | 0.00 | 0.00 | 53 | 1009.6 |
| 20260508022610 | 8 | 123 | 0.0 | 0.0 | 0.00 | 0.00 | 0.00 | 52 | 1009.6 |
| 20260508022513 | 8 | 123 | 0.0 | 0.0 | 0.00 | 0.00 | 0.00 | 51 | 1009.5 |
| 20260508022255 | 8 | 123 | 0.0 | 0.0 | 0.00 | 0.00 | 0.00 | 51 | 1009.5 |
| 20260508022209 | 8 | 123 | 0.0 | 0.0 | 0.00 | 0.00 | 0.00 | 51 | 1009.5 |
| 20260508022010 | 8 | 123 | 0.0 | 0.0 | 0.00 | 0.00 | 0.00 | 51 | 1009.6 |
| 20260508021811 | 8 | 123 | 0.0 | 0.0 | 0.00 | 0.00 | 0.00 | 50 | 1009.5 |
| 20260508021752 | 8 | 123 | 0.0 | 0.0 | 0.00 | 0.00 | 0.00 | 50 | 1009.5 |
| 20260508021610 | 8 | 123 | 0.0 | 0.0 | 0.00 | 0.00 | 0.00 | 51 | 1009.5 |
| 20260508021409 | 8 | 123 | 0.0 | 0.0 | 0.00 | 0.00 | 0.00 | 50 | 1009.4 |
| 20260508021252 | 8 | 123 | 0.0 | 0.0 | 0.00 | 0.00 | 0.00 | 50 | 1009.4 |
| 20260508021210 | 8 | 123 | 0.0 | 0.0 | 0.00 | 0.00 | 0.00 | 49 | 1009.4 |
| 20260508021009 | 8 | 123 | 0.0 | 0.0 | 0.00 | 0.00 | 0.00 | 49 | 1009.4 |
| 20260508020919 | 9 | 123 | 0.0 | 0.0 | 0.00 | 0.00 | 0.00 | 49 | 1009.4 |
| 20260508020753 | 8 | 123 | 0.0 | 0.0 | 0.00 | 0.00 | 0.00 | 49 | 1009.3 |
| 20260508020610 | 9 | 123 | 0.0 | 0.0 | 0.00 | 0.00 | 0.00 | 49 | 1009.3 |
| 20260508020410 | 9 | 123 | 0.0 | 0.0 | 0.00 | 0.00 | 0.00 | 48 | 1009.3 |
| 20260508020250 | 9 | 123 | 0.0 | 0.0 | 0.00 | 0.00 | 0.00 | 48 | 1009.2 |
| 20260508020209 | 9 | 123 | 0.0 | 0.0 | 0.00 | 0.00 | 0.00 | 48 | 1009.3 |
| 20260508020111 | 9 | 123 | 0.0 | 0.0 | 0.00 | 0.00 | 0.00 | 48 | 1009.3 |
| 20260508015806 | 9 | 123 | 0.0 | 0.0 | 0.00 | 0.00 | 0.00 | 48 | 1009.3 |
| 20260508015751 | 9 | 123 | 0.0 | 0.0 | 0.00 | 0.00 | 0.00 | 48 | 1009.3 |
| 20260508015602 | 9 | 123 | 0.0 | 0.0 | 0.00 | 0.00 | 0.00 | 48 | 1009.2 |
| 20260508015402 | 10 | 123 | 0.0 | 0.0 | 0.00 | 0.00 | 0.00 | 48 | 1009.2 |
| 20260508015255 | 10 | 123 | 0.0 | 0.0 | 0.00 | 0.00 | 0.00 | 48 | 1009.2 |
| 20260508015202 | 10 | 123 | 0.0 | 0.0 | 0.00 | 0.00 | 0.00 | 47 | 1009.2 |
| 20260508015112 | 10 | 123 | 0.0 | 0.0 | 0.00 | 0.00 | 0.00 | 46 | 1009.1 |
| 20260508015051 | 10 | 123 | 0.0 | 0.0 | 0.00 | 0.00 | 0.00 | 47 | 1009.2 |
| 20260508015011 | 10 | 123 | 0.0 | 0.0 | 0.00 | 0.00 | 0.00 | 46 | 1009.1 |
| 20260508014602 | 10 | 123 | 0.0 | 0.0 | 0.00 | 0.00 | 0.00 | 46 | 1009.2 |
| 20260508014503 | 10 | 123 | 0.0 | 0.0 | 0.00 | 0.00 | 0.00 | 46 | 1009.1 |
| 20260508014252 | 10 | 123 | 0.0 | 0.0 | 0.00 | 0.00 | 0.00 | 46 | 1009.2 |
| 20260508014202 | 10 | 123 | 0.0 | 0.0 | 0.00 | 0.00 | 0.00 | 47 | 1009.0 |
| 20260508014051 | 10 | 123 | 0.0 | 1.6 | 0.00 | 0.00 | 0.00 | 46 | 1009.0 |
| 20260508014037 | 10 | 123 | 0.0 | 1.6 | 0.00 | 0.00 | 0.00 | 46 | 1009.0 |
| 20260508014004 | 10 | 123 | 0.0 | 1.6 | 0.00 | 0.00 | 0.00 | 46 | 1009.0 |
| 20260508013603 | 11 | 123 | 0.0 | 1.6 | 0.00 | 0.00 | 0.00 | 46 | 1009.0 |
| 20260508013402 | 11 | 123 | 0.0 | 1.6 | 0.00 | 0.00 | 0.00 | 45 | 1009.0 |
| 20260508013245 | 11 | 123 | 0.0 | 1.6 | 0.00 | 0.00 | 0.00 | 45 | 1009.0 |
| 20260508013202 | 11 | 123 | 0.0 | 1.6 | 0.00 | 0.00 | 0.00 | 45 | 1009.0 |
| 20260508013057 | 11 | 123 | 0.0 | 1.6 | 0.00 | 0.00 | 0.00 | 45 | 1009.0 |
| 20260508013045 | 11 | 123 | 0.0 | 1.6 | 0.00 | 0.00 | 0.00 | 44 | 1009.0 |
| 20260508013029 | 11 | 123 | 0.0 | 1.6 | 0.00 | 0.00 | 0.00 | 45 | 1009.0 |
| 20260508012602 | 11 | 123 | 0.0 | 0.0 | 0.00 | 0.00 | 0.00 | 43 | 1009.0 |
| 20260508012404 | 12 | 123 | 0.0 | 1.6 | 0.00 | 0.00 | 0.00 | 45 | 1009.1 |
| 20260508012242 | 12 | 123 | 0.0 | 1.6 | 0.00 | 0.00 | 0.00 | 44 | 1009.0 |
| 20260508012052 | 12 | 123 | 0.0 | 1.6 | 0.00 | 0.00 | 0.00 | 42 | 1009.0 |
| 20260508012036 | 12 | 123 | 0.0 | 1.6 | 0.00 | 0.00 | 0.00 | 43 | 1009.0 |
| 20260508012003 | 12 | 123 | 0.0 | 1.6 | 0.00 | 0.00 | 0.00 | 42 | 1009.0 |
| 20260508011604 | 12 | 123 | 0.0 | 1.6 | 0.00 | 0.00 | 0.00 | 41 | 1009.0 |
| 20260508011403 | 12 | 123 | 0.0 | 0.0 | 0.00 | 0.00 | 0.00 | 36 | 1008.9 |
| 20260508011239 | 12 | 123 | 0.0 | 0.0 | 0.00 | 0.00 | 0.00 | 36 | 1009.0 |
| 20260508011203 | 12 | 123 | 0.0 | 0.0 | 0.00 | 0.00 | 0.00 | 35 | 1009.0 |
| 20260508011004 | 12 | 123 | 0.0 | 0.0 | 0.00 | 0.00 | 0.00 | 35 | 1009.0 |
| 20260508010805 | 13 | 123 | 0.0 | 0.0 | 0.00 | 0.00 | 0.00 | 35 | 1009.0 |
| 20260508010740 | 13 | 123 | 0.0 | 0.0 | 0.00 | 0.00 | 0.00 | 35 | 1009.0 |
| 20260508010653 | 13 | 123 | 0.0 | 0.0 | 0.00 | 0.00 | 0.00 | 35 | 1008.9 |
| 20260508010355 | 13 | 123 | 0.0 | 0.0 | 0.00 | 0.00 | 0.00 | 35 | 1009.0 |
| 20260508010241 | 13 | 123 | 0.0 | 0.0 | 0.00 | 0.00 | 0.00 | 35 | 1008.9 |
| 20260508010157 | 13 | 123 | 0.0 | 0.0 | 0.00 | 0.00 | 0.00 | 36 | 1009.0 |
| 20260508005955 | 13 | 123 | 0.0 | 1.6 | 0.00 | 0.00 | 0.00 | 38 | 1008.9 |
| 20260508005755 | 13 | 123 | 0.0 | 1.6 | 0.00 | 0.00 | 0.00 | 37 | 1008.9 |
| 20260508005738 | 13 | 123 | 0.0 | 1.6 | 0.00 | 0.00 | 0.00 | 35 | 1008.9 |
| 20260508005556 | 13 | 123 | 0.0 | 1.6 | 0.00 | 0.00 | 0.00 | 35 | 1008.9 |
| 20260508005353 | 13 | 123 | 0.0 | 3.2 | 0.00 | 0.00 | 0.00 | 35 | 1009.0 |
| 20260508005238 | 13 | 123 | 0.0 | 3.2 | 0.00 | 0.00 | 0.00 | 35 | 1009.0 |
| 20260508005153 | 13 | 123 | 0.0 | 3.2 | 0.00 | 0.00 | 0.00 | 36 | 1008.9 |
| 20260508005057 | 13 | 123 | 0.0 | 3.2 | 0.00 | 0.00 | 0.00 | 37 | 1008.9 |
| 20260508004738 | 13 | 123 | 0.0 | 4.8 | 0.00 | 0.00 | 0.00 | 36 | 1008.9 |
| 20260508004550 | 13 | 123 | 0.0 | 4.8 | 0.00 | 0.00 | 0.00 | 35 | 1008.9 |
| 20260508004349 | 13 | 106 | 0.0 | 4.8 | 0.00 | 0.00 | 0.00 | 35 | 1008.9 |
| 20260508004238 | 13 | 106 | 0.0 | 4.8 | 0.00 | 0.00 | 0.00 | 37 | 1008.9 |
| 20260508004148 | 13 | 106 | 0.0 | 4.8 | 0.00 | 0.00 | 0.00 | 37 | 1008.9 |
| 20260508003950 | 13 | 100 | 0.0 | 4.8 | 0.00 | 0.00 | 0.00 | 35 | 1008.9 |
| 20260508003849 | 13 | 230 | 0.0 | 4.8 | 0.00 | 0.00 | 0.00 | 36 | 1008.9 |
| 20260508003736 | 13 | 230 | 0.0 | 6.4 | 0.00 | 0.00 | 0.00 | 36 | 1008.9 |
| 20260508003546 | 14 | 230 | 0.0 | 6.4 | 0.00 | 0.00 | 0.00 | 34 | 1008.9 |
| 20260508003344 | 14 | 230 | 0.0 | 6.4 | 0.00 | 0.00 | 0.00 | 34 | 1008.8 |
| 20260508003237 | 14 | 230 | 0.0 | 6.4 | 0.00 | 0.00 | 0.00 | 36 | 1008.9 |
| 20260508003143 | 14 | 230 | 0.0 | 6.4 | 0.00 | 0.00 | 0.00 | 36 | 1008.9 |
| 20260508002943 | 14 | 230 | 0.0 | 6.4 | 0.00 | 0.00 | 0.00 | 34 | 1008.8 |
| 20260508002745 | 14 | 244 | 0.0 | 8.0 | 0.00 | 0.00 | 0.00 | 33 | 1008.8 |
| 20260508002736 | 14 | 262 | 0.0 | 8.0 | 0.00 | 0.00 | 0.00 | 33 | 1008.8 |
| 20260508002544 | 14 | 262 | 0.0 | 8.0 | 0.00 | 0.00 | 0.00 | 34 | 1008.9 |
| 20260508002339 | 14 | 262 | 0.0 | 8.0 | 0.00 | 0.00 | 0.00 | 33 | 1008.9 |
| 20260508002246 | 14 | 247 | 0.0 | 8.0 | 0.00 | 0.00 | 0.00 | 33 | 1008.9 |
| 20260508002234 | 14 | 261 | 0.0 | 8.0 | 0.00 | 0.00 | 0.00 | 33 | 1008.8 |
| 20260508002039 | 14 | 235 | 0.0 | 4.8 | 0.00 | 0.00 | 0.00 | 33 | 1008.9 |
| 20260508002021 | 14 | 245 | 0.0 | 8.0 | 0.00 | 0.00 | 0.00 | 33 | 1008.9 |
| 20260508001950 | 14 | 235 | 0.0 | 4.8 | 0.00 | 0.00 | 0.00 | 33 | 1008.9 |
| 20260508001537 | 14 | 237 | 0.0 | 4.8 | 0.00 | 0.00 | 0.00 | 34 | 1008.8 |
| 20260508001338 | 14 | 237 | 0.0 | 6.4 | 0.00 | 0.00 | 0.00 | 33 | 1008.9 |
| 20260508001231 | 14 | 237 | 0.0 | 6.4 | 0.00 | 0.00 | 0.00 | 34 | 1008.9 |
| 20260508001131 | 14 | 237 | 0.0 | 6.4 | 0.00 | 0.00 | 0.00 | 32 | 1008.8 |
| 20260508001041 | 14 | 237 | 0.0 | 6.4 | 0.00 | 0.00 | 0.00 | 35 | 1008.9 |
| 20260508001018 | 14 | 237 | 0.0 | 6.4 | 0.00 | 0.00 | 0.00 | 32 | 1008.9 |
| 20260508000949 | 14 | 237 | 0.0 | 6.4 | 0.00 | 0.00 | 0.00 | 35 | 1008.9 |
| 20260508000635 | 14 | 237 | 0.0 | 6.4 | 0.00 | 0.00 | 0.00 | 32 | 1009.0 |
| 20260508000334 | 15 | 227 | 0.0 | 8.0 | 0.00 | 0.00 | 0.00 | 35 | 1008.9 |
| 20260508000242 | 15 | 227 | 0.0 | 8.0 | 0.00 | 0.00 | 0.00 | 32 | 1008.9 |
| 20260508000234 | 15 | 227 | 0.0 | 8.0 | 0.00 | 0.00 | 0.00 | 32 | 1008.8 |
| 20260508000008 | 15 | 227 | 0.0 | 8.0 | 0.00 | 0.00 | 0.00 | 32 | 1009.0 |
| 20260507235952 | 15 | 227 | 0.0 | 8.0 | 0.00 | 0.00 | 0.00 | 33 | 1008.9 |
| 20260507235918 | 15 | 227 | 0.0 | 8.0 | 0.00 | 0.00 | 0.00 | 32 | 1009.0 |
| 20260507235509 | 15 | 209 | 0.0 | 6.4 | 0.00 | 0.00 | 0.00 | 31 | 1009.0 |
| 20260507235309 | 15 | 190 | 0.0 | 4.8 | 0.00 | 0.00 | 0.00 | 32 | 1009.0 |
| 20260507235209 | 15 | 190 | 0.0 | 4.8 | 0.00 | 0.00 | 0.00 | 32 | 1009.0 |
| 20260507235105 | 15 | 190 | 0.0 | 4.8 | 0.00 | 0.00 | 0.00 | 31 | 1009.0 |
| 20260507234904 | 15 | 190 | 0.0 | 4.8 | 0.00 | 0.00 | 0.00 | 32 | 1009.1 |
| 20260507234711 | 15 | 190 | 0.0 | 4.8 | 0.00 | 0.00 | 0.00 | 32 | 1009.0 |
| 20260507234704 | 15 | 190 | 0.0 | 4.8 | 0.00 | 0.00 | 0.00 | 32 | 1009.1 |
| 20260507234607 | 15 | 219 | 0.0 | 4.8 | 0.00 | 0.00 | 0.00 | 31 | 1009.0 |
| 20260507234304 | 15 | 219 | 0.0 | 4.8 | 0.00 | 0.00 | 0.00 | 31 | 1009.1 |
| 20260507234207 | 15 | 219 | 0.0 | 8.0 | 0.00 | 0.00 | 0.00 | 31 | 1009.1 |
| 20260507234041 | 15 | 219 | 0.0 | 9.7 | 0.00 | 0.00 | 0.00 | 33 | 1009.1 |
| 20260507233958 | 15 | 233 | 0.0 | 9.7 | 0.00 | 0.00 | 0.00 | 31 | 1009.2 |
| 20260507233942 | 15 | 219 | 0.0 | 9.7 | 0.00 | 0.00 | 0.00 | 30 | 1009.2 |
| 20260507233640 | 15 | 233 | 0.0 | 9.7 | 0.00 | 0.00 | 0.00 | 31 | 1009.2 |
| 20260507233439 | 15 | 240 | 0.0 | 9.7 | 0.00 | 0.00 | 0.00 | 31 | 1009.2 |
| 20260507233241 | 15 | 252 | 0.0 | 9.7 | 0.00 | 0.00 | 0.00 | 31 | 1009.2 |
| 20260507233207 | 15 | 254 | 0.0 | 9.7 | 0.00 | 0.00 | 0.00 | 31 | 1009.2 |
| 20260507233044 | 15 | 47 | 0.0 | 6.4 | 0.00 | 0.00 | 0.00 | 32 | 1009.2 |
| 20260507233039 | 15 | 183 | 0.0 | 6.4 | 0.00 | 0.00 | 0.00 | 32 | 1009.2 |
| 20260507232948 | 15 | 47 | 0.0 | 6.4 | 0.00 | 0.00 | 0.00 | 31 | 1009.2 |
| 20260507232638 | 15 | 47 | 0.0 | 6.4 | 0.00 | 0.00 | 0.00 | 30 | 1009.2 |
| 20260507232440 | 15 | 61 | 0.0 | 6.4 | 0.00 | 0.00 | 0.00 | 30 | 1009.2 |
| 20260507232208 | 15 | 45 | 0.0 | 11.3 | 0.00 | 0.00 | 0.00 | 31 | 1009.2 |
| 20260507232031 | 15 | 45 | 0.0 | 11.3 | 0.00 | 0.00 | 0.00 | 28 | 1009.2 |
| 20260507231941 | 15 | 204 | 0.0 | 11.3 | 0.00 | 0.00 | 0.00 | 32 | 1009.3 |
| 20260507231930 | 15 | 204 | 0.0 | 11.3 | 0.00 | 0.00 | 0.00 | 30 | 1009.2 |
| 20260507231613 | 15 | 237 | 0.0 | 11.3 | 0.00 | 0.00 | 0.00 | 30 | 1009.3 |
| 20260507231513 | 16 | 255 | 0.0 | 11.3 | 0.00 | 0.00 | 0.00 | 28 | 1009.3 |
| 20260507231219 | 16 | 250 | 0.0 | 9.7 | 0.00 | 0.00 | 0.00 | 30 | 1009.2 |
| 20260507231208 | 16 | 245 | 0.0 | 8.0 | 0.00 | 0.00 | 0.00 | 33 | 1009.2 |
| 20260507231013 | 16 | 252 | 0.0 | 6.4 | 0.00 | 0.00 | 0.00 | 34 | 1009.3 |
| 20260507230811 | 15 | 254 | 0.0 | 8.0 | 0.00 | 0.00 | 0.00 | 31 | 1009.3 |
| 20260507230708 | 15 | 254 | 0.0 | 8.0 | 0.00 | 0.00 | 0.00 | 30 | 1009.2 |
| 20260507230613 | 15 | 254 | 0.0 | 8.0 | 0.00 | 0.00 | 0.00 | 31 | 1009.2 |
| 20260507230507 | 15 | 254 | 0.0 | 9.7 | 0.00 | 0.00 | 0.00 | 29 | 1009.3 |
| 20260507230450 | 15 | 254 | 0.0 | 9.7 | 0.00 | 0.00 | 0.00 | 29 | 1009.2 |
| 20260507230421 | 15 | 254 | 0.0 | 9.7 | 0.00 | 0.00 | 0.00 | 29 | 1009.2 |
| 20260507230007 | 15 | 254 | 0.0 | 9.7 | 0.00 | 0.00 | 0.00 | 31 | 1009.2 |
| 20260507225905 | 15 | 257 | 0.0 | 9.7 | 0.00 | 0.00 | 0.00 | 32 | 1009.3 |
| 20260507225702 | 15 | 257 | 0.0 | 9.7 | 0.00 | 0.00 | 0.00 | 31 | 1009.3 |
| 20260507225605 | 15 | 264 | 0.0 | 9.7 | 0.00 | 0.00 | 0.00 | 32 | 1009.3 |
| 20260507225503 | 15 | 203 | 0.0 | 9.7 | 0.00 | 0.00 | 0.00 | 30 | 1009.4 |
| 20260507225448 | 15 | 48 | 0.0 | 9.7 | 0.00 | 0.00 | 0.00 | 31 | 1009.3 |
| 20260507225420 | 15 | 203 | 0.0 | 9.7 | 0.00 | 0.00 | 0.00 | 30 | 1009.4 |
| 20260507225007 | 15 | 207 | 0.0 | 9.7 | 0.00 | 0.00 | 0.00 | 32 | 1009.4 |
| 20260507224805 | 15 | 252 | 0.0 | 9.7 | 0.00 | 0.00 | 0.00 | 31 | 1009.5 |
| 20260507224702 | 15 | 243 | 0.0 | 9.7 | 0.00 | 0.00 | 0.00 | 30 | 1009.4 |
| 20260507224603 | 15 | 241 | 0.0 | 9.7 | 0.00 | 0.00 | 0.00 | 30 | 1009.4 |
| 20260507224446 | 15 | 244 | 0.0 | 14.5 | 0.00 | 0.00 | 0.00 | 29 | 1009.5 |
| 20260507224434 | 15 | 244 | 0.0 | 14.5 | 0.00 | 0.00 | 0.00 | 29 | 1009.4 |
| 20260507224153 | 15 | 244 | 0.0 | 14.5 | 0.00 | 0.00 | 0.00 | 29 | 1009.5 |
| 20260507223952 | 15 | 244 | 0.0 | 14.5 | 0.00 | 0.00 | 0.00 | 29 | 1009.5 |
| 20260507223753 | 15 | 244 | 0.0 | 14.5 | 0.00 | 0.00 | 0.00 | 29 | 1009.4 |
| 20260507223706 | 15 | 244 | 0.0 | 14.5 | 0.00 | 0.00 | 0.00 | 29 | 1009.5 |
| 20260507223533 | 15 | 244 | 0.0 | 14.5 | 0.00 | 0.00 | 0.00 | 30 | 1009.4 |
| 20260507223333 | 15 | 226 | 0.0 | 14.5 | 0.00 | 0.00 | 0.00 | 31 | 1009.5 |
| 20260507223203 | 15 | 223 | 0.0 | 11.3 | 0.00 | 0.00 | 0.00 | 29 | 1009.5 |
| 20260507223133 | 15 | 223 | 0.0 | 11.3 | 0.00 | 0.00 | 0.00 | 32 | 1009.5 |
| 20260507223026 | 15 | 237 | 0.0 | 14.5 | 0.00 | 0.00 | 0.00 | 29 | 1009.5 |
| 20260507222732 | 15 | 233 | 0.0 | 14.5 | 0.00 | 0.00 | 0.00 | 30 | 1009.5 |
| 20260507222700 | 15 | 247 | 0.0 | 14.5 | 0.00 | 0.00 | 0.00 | 30 | 1009.5 |
| 20260507222531 | 15 | 228 | 0.0 | 14.5 | 0.00 | 0.00 | 0.00 | 31 | 1009.5 |
| 20260507222333 | 15 | 250 | 0.0 | 14.5 | 0.00 | 0.00 | 0.00 | 30 | 1009.5 |
| 20260507222159 | 15 | 265 | 0.0 | 14.5 | 0.00 | 0.00 | 0.00 | 32 | 1009.5 |
| 20260507222130 | 15 | 254 | 0.0 | 14.5 | 0.00 | 0.00 | 0.00 | 32 | 1009.4 |
| 20260507222003 | 15 | 309 | 0.0 | 14.5 | 0.00 | 0.00 | 0.00 | 34 | 1009.5 |
| 20260507221951 | 15 | 228 | 0.0 | 11.3 | 0.00 | 0.00 | 0.00 | 31 | 1009.4 |
| 20260507221923 | 15 | 227 | 0.0 | 14.5 | 0.00 | 0.00 | 0.00 | 33 | 1009.5 |
| 20260507221527 | 15 | 283 | 0.0 | 14.5 | 0.00 | 0.00 | 0.00 | 31 | 1009.4 |
| 20260507221424 | 15 | 283 | 0.0 | 14.5 | 0.00 | 0.00 | 0.00 | 30 | 1009.4 |
| 20260507221200 | 15 | 227 | 0.0 | 14.5 | 0.00 | 0.00 | 0.00 | 30 | 1009.4 |
| 20260507221116 | 15 | 227 | 0.0 | 14.5 | 0.00 | 0.00 | 0.00 | 32 | 1009.5 |
| 20260507221007 | 15 | 231 | 0.0 | 14.5 | 0.00 | 0.00 | 0.00 | 29 | 1009.5 |
| 20260507220952 | 15 | 209 | 0.0 | 14.5 | 0.00 | 0.00 | 0.00 | 33 | 1009.5 |
| 20260507220920 | 15 | 233 | 0.0 | 14.5 | 0.00 | 0.00 | 0.00 | 29 | 1009.5 |
| 20260507220509 | 15 | 257 | 0.0 | 11.3 | 0.00 | 0.00 | 0.00 | 31 | 1009.6 |
| 20260507220306 | 15 | 258 | 0.0 | 16.1 | 0.00 | 0.00 | 0.00 | 30 | 1009.6 |
| 20260507220156 | 15 | 224 | 0.0 | 16.1 | 0.00 | 0.00 | 0.00 | 33 | 1009.5 |
| 20260507220107 | 15 | 238 | 0.0 | 16.1 | 0.00 | 0.00 | 0.00 | 32 | 1009.5 |
| 20260507220010 | 15 | 41 | 0.0 | 17.7 | 0.00 | 0.00 | 0.00 | 32 | 1009.7 |
| 20260507215948 | 15 | 255 | 0.0 | 16.1 | 0.00 | 0.00 | 0.00 | 30 | 1009.6 |
| 20260507215919 | 15 | 41 | 0.0 | 17.7 | 0.00 | 0.00 | 0.00 | 32 | 1009.7 |
| 20260507215506 | 15 | 240 | 0.0 | 17.7 | 0.00 | 0.00 | 0.00 | 30 | 1009.7 |
| 20260507215307 | 15 | 281 | 0.0 | 17.7 | 0.00 | 0.00 | 0.00 | 33 | 1009.7 |
| 20260507215211 | 15 | 223 | 0.0 | 17.7 | 0.00 | 0.00 | 0.00 | 32 | 1009.6 |
| 20260507215157 | 15 | 247 | 0.0 | 17.7 | 0.00 | 0.00 | 0.00 | 32 | 1009.6 |
| 20260507214907 | 15 | 261 | 0.0 | 17.7 | 0.00 | 0.00 | 0.00 | 31 | 1009.5 |
| 20260507214655 | 15 | 245 | 0.0 | 8.0 | 0.00 | 0.00 | 0.00 | 33 | 1009.6 |
| 20260507214459 | 15 | 37 | 0.0 | 16.1 | 0.00 | 0.00 | 0.00 | 32 | 1009.7 |
| 20260507214441 | 15 | 230 | 0.0 | 16.1 | 0.00 | 0.00 | 0.00 | 30 | 1009.6 |
| 20260507214420 | 15 | 13 | 0.0 | 16.1 | 0.00 | 0.00 | 0.00 | 32 | 1009.6 |
| 20260507214045 | 15 | 238 | 0.0 | 16.1 | 0.00 | 0.00 | 0.00 | 29 | 1009.7 |
| 20260507213844 | 15 | 240 | 0.0 | 16.1 | 0.00 | 0.00 | 0.00 | 32 | 1009.7 |
| 20260507213653 | 15 | 226 | 0.0 | 16.1 | 0.00 | 0.00 | 0.00 | 31 | 1009.7 |
| 20260507213647 | 15 | 238 | 0.0 | 16.1 | 0.00 | 0.00 | 0.00 | 31 | 1009.7 |
| 20260507213548 | 15 | 227 | 0.0 | 16.1 | 0.00 | 0.00 | 0.00 | 33 | 1009.7 |
| 20260507213452 | 15 | 209 | 0.0 | 16.1 | 0.00 | 0.00 | 0.00 | 32 | 1009.8 |
| 20260507213419 | 15 | 210 | 0.0 | 16.1 | 0.00 | 0.00 | 0.00 | 33 | 1009.8 |
| 20260507213034 | 15 | 244 | 0.0 | 16.1 | 0.00 | 0.00 | 0.00 | 31 | 1009.8 |
| 20260507212835 | 15 | 213 | 0.0 | 16.1 | 0.00 | 0.00 | 0.00 | 34 | 1009.8 |
| 20260507212651 | 15 | 248 | 0.0 | 16.1 | 0.00 | 0.00 | 0.00 | 34 | 1009.8 |
| 20260507212627 | 15 | 255 | 0.0 | 16.1 | 0.00 | 0.00 | 0.00 | 34 | 1009.8 |
| 20260507212459 | 15 | 228 | 0.0 | 14.5 | 0.00 | 0.00 | 0.00 | 31 | 1009.8 |
| 20260507212441 | 15 | 251 | 0.0 | 14.5 | 0.00 | 0.00 | 0.00 | 33 | 1009.9 |
| 20260507212413 | 15 | 220 | 0.0 | 14.5 | 0.00 | 0.00 | 0.00 | 31 | 1009.8 |
| 20260507212006 | 15 | 34 | 0.0 | 14.5 | 0.00 | 0.00 | 0.00 | 30 | 1009.8 |
| 20260507211806 | 15 | 231 | 0.0 | 14.5 | 0.00 | 0.00 | 0.00 | 35 | 1009.9 |
| 20260507211705 | 15 | 282 | 0.0 | 11.3 | 0.00 | 0.00 | 0.00 | 34 | 1009.9 |
| 20260507211651 | 15 | 268 | 0.0 | 11.3 | 0.00 | 0.00 | 0.00 | 34 | 1009.8 |
| 20260507211408 | 14 | 257 | 0.0 | 11.3 | 0.00 | 0.00 | 0.00 | 35 | 1009.9 |
| 20260507211209 | 14 | 252 | 0.0 | 11.3 | 0.00 | 0.00 | 0.00 | 31 | 1009.9 |
| 20260507211151 | 14 | 252 | 0.0 | 11.3 | 0.00 | 0.00 | 0.00 | 31 | 1009.9 |
| 20260507211008 | 14 | 252 | 0.0 | 11.3 | 0.00 | 0.00 | 0.00 | 31 | 1009.9 |
| 20260507210756 | 15 | 257 | 0.0 | 11.3 | 0.00 | 0.00 | 0.00 | 31 | 1009.9 |
| 20260507210654 | 15 | 247 | 0.0 | 6.4 | 0.00 | 0.00 | 0.00 | 31 | 1010.0 |
| 20260507210532 | 15 | 212 | 0.0 | 6.4 | 0.00 | 0.00 | 0.00 | 32 | 1009.9 |
| 20260507210332 | 15 | 212 | 0.0 | 11.3 | 0.00 | 0.00 | 0.00 | 32 | 1010.0 |
| 20260507210132 | 15 | 212 | 0.0 | 11.3 | 0.00 | 0.00 | 0.00 | 34 | 1010.0 |
| 20260507210116 | 15 | 213 | 0.0 | 11.3 | 0.00 | 0.00 | 0.00 | 31 | 1010.0 |
| 20260507210031 | 15 | 48 | 0.0 | 11.3 | 0.00 | 0.00 | 0.00 | 34 | 1010.0 |
| 20260507205933 | 14 | 226 | 0.0 | 11.3 | 0.00 | 0.00 | 0.00 | 35 | 1010.0 |
| 20260507205900 | 14 | 226 | 0.0 | 11.3 | 0.00 | 0.00 | 0.00 | 36 | 1010.0 |
| 20260507205513 | 14 | 224 | 0.0 | 11.3 | 0.00 | 0.00 | 0.00 | 33 | 1010.0 |
| 20260507205313 | 14 | 226 | 0.0 | 11.3 | 0.00 | 0.00 | 0.00 | 35 | 1010.2 |
| 20260507205130 | 14 | 261 | 0.0 | 11.3 | 0.00 | 0.00 | 0.00 | 32 | 1010.0 |
| 20260507205115 | 14 | 248 | 0.0 | 11.3 | 0.00 | 0.00 | 0.00 | 32 | 1010.0 |
| 20260507204934 | 14 | 32 | 0.0 | 9.7 | 0.00 | 0.00 | 0.00 | 32 | 1010.1 |
| 20260507204927 | 14 | 220 | 0.0 | 9.7 | 0.00 | 0.00 | 0.00 | 35 | 1010.1 |
| 20260507204855 | 14 | 286 | 0.0 | 9.7 | 0.00 | 0.00 | 0.00 | 34 | 1010.2 |
| 20260507204511 | 13 | 228 | 0.0 | 9.7 | 0.00 | 0.00 | 0.00 | 36 | 1010.2 |
| 20260507204404 | 13 | 203 | 0.0 | 9.7 | 0.00 | 0.00 | 0.00 | 37 | 1010.1 |
| 20260507204133 | 13 | 203 | 0.0 | 9.7 | 0.00 | 0.00 | 0.00 | 32 | 1010.2 |
| 20260507204055 | 13 | 203 | 0.0 | 9.7 | 0.00 | 0.00 | 0.00 | 32 | 1010.2 |
| 20260507203940 | 13 | 252 | 0.0 | 11.3 | 0.00 | 0.00 | 0.00 | 36 | 1010.2 |
| 20260507203927 | 13 | 255 | 0.0 | 9.7 | 0.00 | 0.00 | 0.00 | 36 | 1010.2 |
| 20260507203853 | 13 | 237 | 0.0 | 11.3 | 0.00 | 0.00 | 0.00 | 36 | 1010.3 |
| 20260507203453 | 13 | 227 | 0.0 | 11.3 | 0.00 | 0.00 | 0.00 | 32 | 1010.3 |
| 20260507203252 | 13 | 235 | 0.0 | 11.3 | 0.00 | 0.00 | 0.00 | 32 | 1010.4 |
| 20260507203131 | 13 | 235 | 0.0 | 14.5 | 0.00 | 0.00 | 0.00 | 32 | 1010.3 |
| 20260507203051 | 13 | 235 | 0.0 | 14.5 | 0.00 | 0.00 | 0.00 | 32 | 1010.3 |
| 20260507202833 | 13 | 250 | 0.0 | 14.5 | 0.00 | 0.00 | 0.00 | 35 | 1010.4 |
| 20260507202631 | 14 | 262 | 0.0 | 14.5 | 0.00 | 0.00 | 0.00 | 36 | 1010.4 |
| 20260507202433 | 13 | 262 | 0.0 | 14.5 | 0.00 | 0.00 | 0.00 | 36 | 1010.4 |
| 20260507202216 | 13 | 252 | 0.0 | 14.5 | 0.00 | 0.00 | 0.00 | 34 | 1010.4 |
| 20260507202122 | 13 | 223 | 0.0 | 11.3 | 0.00 | 0.00 | 0.00 | 37 | 1010.4 |
| 20260507202114 | 13 | 233 | 0.0 | 11.3 | 0.00 | 0.00 | 0.00 | 40 | 1010.5 |
| 20260507201815 | 13 | 251 | 0.0 | 11.3 | 0.00 | 0.00 | 0.00 | 36 | 1010.4 |
| 20260507201621 | 13 | 320 | 0.0 | 11.3 | 0.00 | 0.00 | 0.00 | 36 | 1010.4 |
| 20260507201615 | 13 | 333 | 0.0 | 8.0 | 0.00 | 0.00 | 0.00 | 36 | 1010.4 |
| 20260507201416 | 13 | 223 | 0.0 | 8.0 | 0.00 | 0.00 | 0.00 | 40 | 1010.5 |
| 20260507201213 | 12 | 73 | 0.0 | 8.0 | 0.00 | 0.00 | 0.00 | 42 | 1010.5 |
| 20260507201120 | 12 | 73 | 0.0 | 8.0 | 0.00 | 0.00 | 0.00 | 39 | 1010.4 |
| 20260507201014 | 12 | 45 | 0.0 | 8.0 | 0.00 | 0.00 | 0.00 | 37 | 1010.5 |
| 20260507200813 | 13 | 42 | 0.0 | 8.0 | 0.00 | 0.00 | 0.00 | 51 | 1010.5 |
| 20260507200617 | 13 | 65 | 0.0 | 8.0 | 0.00 | 0.00 | 0.00 | 47 | 1010.5 |
| 20260507200612 | 13 | 75 | 0.0 | 8.0 | 0.00 | 0.00 | 0.00 | 47 | 1010.5 |
| 20260507200513 | 13 | 124 | 0.0 | 8.0 | 0.00 | 0.00 | 0.00 | 41 | 1010.5 |
| 20260507200212 | 13 | 128 | 0.0 | 8.0 | 0.00 | 0.00 | 0.00 | 39 | 1010.6 |
| 20260507200114 | 13 | 151 | 0.0 | 8.0 | 0.00 | 0.00 | 0.00 | 41 | 1010.7 |
| 20260507200009 | 13 | 151 | 0.0 | 8.0 | 0.00 | 0.00 | 0.00 | 42 | 1010.7 |
| 20260507195804 | 13 | 44 | 0.0 | 8.0 | 0.00 | 0.00 | 0.00 | 41 | 1010.6 |
| 20260507195618 | 13 | 38 | 0.0 | 8.0 | 0.00 | 0.00 | 0.00 | 40 | 1010.6 |
| 20260507195605 | 13 | 292 | 0.0 | 8.0 | 0.00 | 0.00 | 0.00 | 40 | 1010.6 |
| 20260507195351 | 13 | 234 | 0.0 | 6.4 | 0.00 | 0.00 | 0.00 | 37 | 1010.6 |
| 20260507195152 | 13 | 90 | 0.0 | 6.4 | 0.00 | 0.00 | 0.00 | 37 | 1010.7 |
| 20260507195106 | 13 | 4 | 0.0 | 6.4 | 0.00 | 0.00 | 0.00 | 37 | 1010.7 |
| 20260507194952 | 13 | 41 | 0.0 | 8.0 | 0.00 | 0.00 | 0.00 | 41 | 1010.7 |
| 20260507194908 | 13 | 334 | 0.0 | 14.5 | 0.00 | 0.00 | 0.00 | 40 | 1010.7 |
| 20260507194842 | 13 | 264 | 0.0 | 14.5 | 0.00 | 0.00 | 0.00 | 33 | 1010.7 |
| 20260507194547 | 13 | 25 | 0.0 | 14.5 | 0.00 | 0.00 | 0.00 | 36 | 1010.8 |
| 20260507194349 | 13 | 25 | 0.0 | 14.5 | 0.00 | 0.00 | 0.00 | 35 | 1010.8 |
| 20260507194258 | 13 | 296 | 0.0 | 14.5 | 0.00 | 0.00 | 0.00 | 39 | 1010.8 |
| 20260507194106 | 13 | 204 | 0.0 | 14.5 | 0.00 | 0.00 | 0.00 | 39 | 1010.8 |
| 20260507193947 | 13 | 193 | 0.0 | 14.5 | 0.00 | 0.00 | 0.00 | 36 | 1010.7 |
| 20260507193747 | 13 | 251 | 0.0 | 9.7 | 0.00 | 0.00 | 0.00 | 34 | 1010.9 |
| 20260507193604 | 13 | 264 | 0.0 | 9.7 | 0.00 | 0.00 | 0.00 | 39 | 1010.8 |
| 20260507193544 | 13 | 268 | 0.0 | 9.7 | 0.00 | 0.00 | 0.00 | 41 | 1010.8 |
| 20260507193342 | 12 | 44 | 0.0 | 11.3 | 0.00 | 0.00 | 0.00 | 46 | 1010.8 |
| 20260507193145 | 12 | 39 | 0.0 | 11.3 | 0.00 | 0.00 | 0.00 | 35 | 1010.9 |
| 20260507193105 | 12 | 39 | 0.0 | 11.3 | 0.00 | 0.00 | 0.00 | 35 | 1010.9 |
| 20260507192939 | 12 | 49 | 0.0 | 11.3 | 0.00 | 0.00 | 0.00 | 38 | 1011.0 |
| 20260507192738 | 12 | 240 | 0.0 | 14.5 | 0.00 | 0.00 | 0.00 | 41 | 1010.9 |
| 20260507192640 | 13 | 219 | 0.0 | 14.5 | 0.00 | 0.00 | 0.00 | 38 | 1010.9 |
| 20260507192605 | 13 | 237 | 0.0 | 14.5 | 0.00 | 0.00 | 0.00 | 38 | 1010.9 |
| 20260507192337 | 13 | 234 | 0.0 | 14.5 | 0.00 | 0.00 | 0.00 | 38 | 1010.9 |
| 20260507192134 | 13 | 252 | 0.0 | 14.5 | 0.00 | 0.00 | 0.00 | 32 | 1011.0 |
| 20260507192103 | 13 | 248 | 0.0 | 14.5 | 0.00 | 0.00 | 0.00 | 33 | 1011.0 |
| 20260507191936 | 13 | 244 | 0.0 | 11.3 | 0.00 | 0.00 | 0.00 | 35 | 1011.0 |
| 20260507191735 | 13 | 333 | 0.0 | 11.3 | 0.00 | 0.00 | 0.00 | 37 | 1010.9 |
| 20260507191605 | 13 | 31 | 0.0 | 11.3 | 0.00 | 0.00 | 0.00 | 36 | 1011.0 |
| 20260507191535 | 13 | 27 | 0.0 | 11.3 | 0.00 | 0.00 | 0.00 | 36 | 1011.0 |
| 20260507191333 | 13 | 130 | 0.0 | 11.3 | 0.00 | 0.00 | 0.00 | 34 | 1011.0 |
| 20260507191134 | 12 | 292 | 0.0 | 11.3 | 0.00 | 0.00 | 0.00 | 37 | 1011.0 |
| 20260507191101 | 12 | 292 | 0.0 | 11.3 | 0.00 | 0.00 | 0.00 | 36 | 1011.0 |
| 20260507191036 | 12 | 189 | 0.0 | 11.3 | 0.00 | 0.00 | 0.00 | 35 | 1010.9 |
| 20260507190731 | 12 | 248 | 0.0 | 11.3 | 0.00 | 0.00 | 0.00 | 33 | 1010.9 |
| 20260507190602 | 12 | 254 | 0.0 | 19.3 | 0.00 | 0.00 | 0.00 | 35 | 1011.0 |
| 20260507190534 | 12 | 254 | 0.0 | 19.3 | 0.00 | 0.00 | 0.00 | 35 | 1011.0 |
| 20260507190400 | 12 | 207 | 0.0 | 19.3 | 0.00 | 0.00 | 0.00 | 31 | 1011.0 |
| 20260507190347 | 12 | 199 | 0.0 | 19.3 | 0.00 | 0.00 | 0.00 | 34 | 1011.1 |
| 20260507190312 | 12 | 206 | 0.0 | 19.3 | 0.00 | 0.00 | 0.00 | 31 | 1011.0 |
| 20260507185910 | 13 | 213 | 0.0 | 19.3 | 0.00 | 0.00 | 0.00 | 37 | 1011.1 |
| 20260507185709 | 13 | 235 | 0.0 | 19.3 | 0.00 | 0.00 | 0.00 | 35 | 1011.1 |
| 20260507185556 | 13 | 245 | 0.0 | 11.3 | 0.00 | 0.00 | 0.00 | 34 | 1011.1 |
| 20260507185508 | 13 | 258 | 0.0 | 11.3 | 0.00 | 0.00 | 0.00 | 35 | 1011.0 |
| 20260507185447 | 12 | 16 | 0.0 | 9.7 | 0.00 | 0.00 | 0.00 | 35 | 1011.0 |
| 20260507185405 | 12 | 241 | 0.0 | 9.7 | 0.00 | 0.00 | 0.00 | 37 | 1011.1 |
| 20260507185317 | 12 | 230 | 0.0 | 9.7 | 0.00 | 0.00 | 0.00 | 37 | 1011.1 |
| 20260507184907 | 12 | 245 | 0.0 | 14.5 | 0.00 | 0.00 | 0.00 | 35 | 1011.1 |
| 20260507184710 | 13 | 250 | 0.0 | 14.5 | 0.00 | 0.00 | 0.00 | 35 | 1011.1 |
| 20260507184555 | 13 | 264 | 0.0 | 14.5 | 0.00 | 0.00 | 0.00 | 37 | 1011.1 |
| 20260507184506 | 13 | 224 | 0.0 | 14.5 | 0.00 | 0.00 | 0.00 | 36 | 1011.1 |
| 20260507184359 | 13 | 45 | 0.0 | 14.5 | 0.00 | 0.00 | 0.00 | 38 | 1011.2 |
| 20260507184347 | 13 | 320 | 0.0 | 14.5 | 0.00 | 0.00 | 0.00 | 36 | 1011.1 |
| 20260507184314 | 13 | 37 | 0.0 | 14.5 | 0.00 | 0.00 | 0.00 | 38 | 1011.2 |
| 20260507183907 | 13 | 18 | 0.0 | 14.5 | 0.00 | 0.00 | 0.00 | 36 | 1011.1 |
| 20260507183705 | 13 | 32 | 0.0 | 14.5 | 0.00 | 0.00 | 0.00 | 35 | 1011.1 |
| 20260507183553 | 13 | 32 | 0.0 | 14.5 | 0.00 | 0.00 | 0.00 | 35 | 1011.2 |
| 20260507183505 | 13 | 20 | 0.0 | 9.7 | 0.00 | 0.00 | 0.00 | 32 | 1011.1 |
| 20260507183439 | 13 | 11 | 0.0 | 9.7 | 0.00 | 0.00 | 0.00 | 35 | 1011.2 |
| 20260507183349 | 13 | 35 | 0.0 | 9.7 | 0.00 | 0.00 | 0.00 | 37 | 1011.2 |
| 20260507183308 | 13 | 35 | 0.0 | 9.7 | 0.00 | 0.00 | 0.00 | 37 | 1011.2 |
| 20260507182906 | 13 | 243 | 0.0 | 9.7 | 0.00 | 0.00 | 0.00 | 37 | 1011.2 |
| 20260507182702 | 13 | 231 | 0.0 | 16.1 | 0.00 | 0.00 | 0.00 | 37 | 1011.2 |
| 20260507182549 | 13 | 278 | 0.0 | 16.1 | 0.00 | 0.00 | 0.00 | 38 | 1011.2 |
| 20260507182504 | 13 | 250 | 0.0 | 16.1 | 0.00 | 0.00 | 0.00 | 38 | 1011.2 |
| 20260507182354 | 12 | 155 | 0.0 | 16.1 | 0.00 | 0.00 | 0.00 | 34 | 1011.2 |
| 20260507182339 | 13 | 52 | 0.0 | 16.1 | 0.00 | 0.00 | 0.00 | 35 | 1011.4 |
| 20260507182307 | 12 | 157 | 0.0 | 16.1 | 0.00 | 0.00 | 0.00 | 34 | 1011.2 |
| 20260507181901 | 12 | 221 | 0.0 | 16.1 | 0.00 | 0.00 | 0.00 | 33 | 1011.1 |
| 20260507181800 | 13 | 264 | 0.0 | 8.0 | 0.00 | 0.00 | 0.00 | 39 | 1011.2 |
| 20260507181551 | 13 | 245 | 0.0 | 9.7 | 0.00 | 0.00 | 0.00 | 38 | 1011.2 |
| 20260507181459 | 13 | 4 | 0.0 | 9.7 | 0.00 | 0.00 | 0.00 | 34 | 1011.2 |
| 20260507181402 | 13 | 51 | 0.0 | 9.7 | 0.00 | 0.00 | 0.00 | 36 | 1011.4 |
| 20260507181345 | 13 | 0 | 0.0 | 9.7 | 0.00 | 0.00 | 0.00 | 37 | 1011.4 |
| 20260507181310 | 13 | 51 | 0.0 | 9.7 | 0.00 | 0.00 | 0.00 | 36 | 1011.4 |
| 20260507180900 | 13 | 20 | 0.0 | 9.7 | 0.00 | 0.00 | 0.00 | 37 | 1011.4 |
| 20260507180702 | 12 | 23 | 0.0 | 9.7 | 0.00 | 0.00 | 0.00 | 37 | 1011.4 |
| 20260507180549 | 12 | 257 | 0.0 | 9.7 | 0.00 | 0.00 | 0.00 | 36 | 1011.2 |
| 20260507180456 | 12 | 51 | 0.0 | 9.7 | 0.00 | 0.00 | 0.00 | 34 | 1011.5 |
| 20260507180356 | 13 | 303 | 0.0 | 9.7 | 0.00 | 0.00 | 0.00 | 36 | 1011.4 |
| 20260507180340 | 13 | 17 | 0.0 | 9.7 | 0.00 | 0.00 | 0.00 | 34 | 1011.5 |
| 20260507175851 | 13 | 52 | 0.0 | 9.7 | 0.00 | 0.00 | 0.00 | 34 | 1011.5 |
| 20260507175656 | 13 | 231 | 0.0 | 9.7 | 0.00 | 0.00 | 0.00 | 35 | 1011.4 |
| 20260507175553 | 13 | 235 | 0.0 | 9.7 | 0.00 | 0.00 | 0.00 | 36 | 1011.4 |
| 20260507175454 | 13 | 245 | 0.0 | 9.7 | 0.00 | 0.00 | 0.00 | 37 | 1011.5 |
| 20260507175359 | 12 | 341 | 0.0 | 9.7 | 0.00 | 0.00 | 0.00 | 36 | 1011.4 |
| 20260507175342 | 13 | 8 | 0.0 | 9.7 | 0.00 | 0.00 | 0.00 | 37 | 1011.4 |
| 20260507175307 | 12 | 341 | 0.0 | 9.7 | 0.00 | 0.00 | 0.00 | 36 | 1011.4 |
| 20260507174853 | 12 | 182 | 0.0 | 9.7 | 0.00 | 0.00 | 0.00 | 35 | 1011.4 |
| 20260507174653 | 12 | 235 | 0.0 | 9.7 | 0.00 | 0.00 | 0.00 | 37 | 1011.5 |
| 20260507174602 | 12 | 257 | 0.0 | 9.7 | 0.00 | 0.00 | 0.00 | 35 | 1011.5 |
| 20260507174552 | 12 | 234 | 0.0 | 9.7 | 0.00 | 0.00 | 0.00 | 39 | 1011.5 |
| 20260507174254 | 12 | 244 | 0.0 | 11.3 | 0.00 | 0.00 | 0.00 | 41 | 1011.5 |
| 20260507174054 | 11 | 214 | 0.0 | 11.3 | 0.00 | 0.00 | 0.00 | 35 | 1011.5 |
| 20260507173853 | 11 | 250 | 0.0 | 11.3 | 0.00 | 0.00 | 0.00 | 42 | 1011.5 |
| 20260507173654 | 11 | 226 | 0.0 | 11.3 | 0.00 | 0.00 | 0.00 | 38 | 1011.6 |
| 20260507173553 | 12 | 226 | 0.0 | 11.3 | 0.00 | 0.00 | 0.00 | 34 | 1011.6 |
| 20260507173453 | 12 | 238 | 0.0 | 14.5 | 0.00 | 0.00 | 0.00 | 37 | 1011.6 |
| 20260507173253 | 12 | 250 | 0.0 | 14.5 | 0.00 | 0.00 | 0.00 | 39 | 1011.6 |
| 20260507173054 | 12 | 347 | 0.0 | 14.5 | 0.00 | 0.00 | 0.00 | 40 | 1011.6 |
| 20260507172955 | 12 | 31 | 0.0 | 14.5 | 0.00 | 0.00 | 0.00 | 35 | 1011.6 |
| 20260507172653 | 12 | 278 | 0.0 | 14.5 | 0.00 | 0.00 | 0.00 | 34 | 1011.6 |
| 20260507172548 | 12 | 28 | 0.0 | 14.5 | 0.00 | 0.00 | 0.00 | 37 | 1011.6 |
| 20260507172453 | 12 | 31 | 0.0 | 11.3 | 0.00 | 0.00 | 0.00 | 41 | 1011.6 |
| 20260507172254 | 12 | 243 | 0.0 | 14.5 | 0.00 | 0.00 | 0.00 | 36 | 1011.8 |
| 20260507172049 | 12 | 245 | 0.0 | 14.5 | 0.00 | 0.00 | 0.00 | 37 | 1011.7 |
| 20260507171853 | 12 | 221 | 0.0 | 14.5 | 0.00 | 0.00 | 0.00 | 33 | 1011.8 |
| 20260507171654 | 12 | 192 | 0.0 | 14.5 | 0.00 | 0.00 | 0.00 | 37 | 1011.9 |
| 20260507171547 | 12 | 254 | 0.0 | 14.5 | 0.00 | 0.00 | 0.00 | 36 | 1011.8 |
| 20260507171454 | 12 | 261 | 0.0 | 14.5 | 0.00 | 0.00 | 0.00 | 35 | 1011.8 |
| 20260507171253 | 12 | 255 | 0.0 | 8.0 | 0.00 | 0.00 | 0.00 | 37 | 1011.7 |
| 20260507171157 | 12 | 120 | 0.0 | 8.0 | 0.00 | 0.00 | 0.00 | 38 | 1011.8 |
| 20260507171047 | 12 | 120 | 0.0 | 8.0 | 0.00 | 0.00 | 0.00 | 38 | 1011.8 |
| 20260507170853 | 12 | 227 | 0.0 | 11.3 | 0.00 | 0.00 | 0.00 | 39 | 1011.8 |
| 20260507170653 | 12 | 227 | 0.0 | 11.3 | 0.00 | 0.00 | 0.00 | 37 | 1011.9 |
| 20260507170544 | 12 | 66 | 0.0 | 11.3 | 0.00 | 0.00 | 0.00 | 39 | 1011.9 |
| 20260507170453 | 12 | 240 | 0.0 | 11.3 | 0.00 | 0.00 | 0.00 | 38 | 1011.9 |
| 20260507170357 | 11 | 235 | 0.0 | 11.3 | 0.00 | 0.00 | 0.00 | 35 | 1011.9 |
| 20260507170341 | 11 | 240 | 0.0 | 11.3 | 0.00 | 0.00 | 0.00 | 37 | 1011.9 |
| 20260507170307 | 11 | 235 | 0.0 | 11.3 | 0.00 | 0.00 | 0.00 | 35 | 1011.8 |
| 20260507165854 | 11 | 186 | 0.0 | 11.3 | 0.00 | 0.00 | 0.00 | 36 | 1011.9 |
| 20260507165653 | 11 | 231 | 0.0 | 8.0 | 0.00 | 0.00 | 0.00 | 39 | 1011.9 |
| 20260507165557 | 11 | 223 | 0.0 | 6.4 | 0.00 | 0.00 | 0.00 | 37 | 1012.0 |
| 20260507165544 | 11 | 264 | 0.0 | 8.0 | 0.00 | 0.00 | 0.00 | 38 | 1011.9 |
| 20260507165253 | 11 | 259 | 0.0 | 8.0 | 0.00 | 0.00 | 0.00 | 40 | 1012.0 |
| 20260507165054 | 11 | 28 | 0.0 | 9.7 | 0.00 | 0.00 | 0.00 | 42 | 1011.9 |
| 20260507165042 | 11 | 27 | 0.0 | 9.7 | 0.00 | 0.00 | 0.00 | 42 | 1011.9 |
| 20260507164853 | 10 | 199 | 0.0 | 9.7 | 0.00 | 0.00 | 0.00 | 41 | 1012.0 |
| 20260507164655 | 10 | 199 | 0.0 | 9.7 | 0.00 | 0.00 | 0.00 | 41 | 1012.0 |
| 20260507164543 | 10 | 231 | 0.0 | 14.5 | 0.00 | 0.00 | 0.00 | 40 | 1012.1 |
| 20260507164453 | 11 | 244 | 0.0 | 14.5 | 0.00 | 0.00 | 0.00 | 43 | 1012.1 |
| 20260507164253 | 10 | 247 | 0.0 | 14.5 | 0.00 | 0.00 | 0.00 | 47 | 1012.0 |
| 20260507164059 | 10 | 306 | 0.0 | 14.5 | 0.00 | 0.00 | 0.00 | 48 | 1012.1 |
| 20260507164043 | 10 | 305 | 0.0 | 14.5 | 0.00 | 0.00 | 0.00 | 40 | 1012.0 |
| 20260507163953 | 10 | 258 | 0.0 | 14.5 | 0.00 | 0.00 | 0.00 | 41 | 1012.1 |
| 20260507163653 | 11 | 227 | 0.0 | 14.5 | 0.00 | 0.00 | 0.00 | 39 | 1012.0 |
| 20260507163541 | 11 | 224 | 0.0 | 11.3 | 0.00 | 0.00 | 0.00 | 41 | 1012.1 |
| 20260507163454 | 11 | 213 | 0.0 | 9.7 | 0.00 | 0.00 | 0.00 | 44 | 1012.1 |
| 20260507163254 | 11 | 202 | 0.0 | 9.7 | 0.00 | 0.00 | 0.00 | 42 | 1012.1 |
| 20260507163041 | 11 | 247 | 0.0 | 9.7 | 0.00 | 0.00 | 0.00 | 42 | 1012.1 |
| 20260507162853 | 11 | 230 | 0.0 | 9.7 | 0.00 | 0.00 | 0.00 | 40 | 1012.2 |
| 20260507162752 | 11 | 262 | 0.0 | 9.7 | 0.00 | 0.00 | 0.00 | 43 | 1012.2 |
| 20260507162539 | 11 | 276 | 0.0 | 9.7 | 0.00 | 0.00 | 0.00 | 44 | 1012.2 |
| 20260507162454 | 11 | 0 | 0.0 | 8.0 | 0.00 | 0.00 | 0.00 | 43 | 1012.2 |
| 20260507162344 | 11 | 62 | 0.0 | 6.4 | 0.00 | 0.00 | 0.00 | 44 | 1012.2 |
| 20260507162331 | 11 | 257 | 0.0 | 8.0 | 0.00 | 0.00 | 0.00 | 39 | 1012.2 |
| 20260507162300 | 11 | 63 | 0.0 | 6.4 | 0.00 | 0.00 | 0.00 | 44 | 1012.2 |
| 20260507161853 | 11 | 66 | 0.0 | 6.4 | 0.00 | 0.00 | 0.00 | 40 | 1012.1 |
| 20260507161653 | 11 | 59 | 0.0 | 6.4 | 0.00 | 0.00 | 0.00 | 41 | 1012.1 |
| 20260507161540 | 11 | 0 | 0.0 | 9.7 | 0.00 | 0.00 | 0.00 | 41 | 1012.2 |
| 20260507161454 | 11 | 0 | 0.0 | 9.7 | 0.00 | 0.00 | 0.00 | 41 | 1012.2 |
| 20260507161253 | 11 | 54 | 0.0 | 9.7 | 0.00 | 0.00 | 0.00 | 40 | 1012.2 |
| 20260507161154 | 11 | 28 | 0.0 | 9.7 | 0.00 | 0.00 | 0.00 | 44 | 1012.3 |
| 20260507161037 | 11 | 28 | 0.0 | 9.7 | 0.00 | 0.00 | 0.00 | 44 | 1012.3 |
| 20260507160853 | 11 | 37 | 0.0 | 9.7 | 0.00 | 0.00 | 0.00 | 44 | 1012.2 |
| 20260507160653 | 10 | 54 | 0.0 | 9.7 | 0.00 | 0.00 | 0.00 | 42 | 1012.2 |
| 20260507160534 | 10 | 100 | 0.0 | 8.0 | 0.00 | 0.00 | 0.00 | 40 | 1012.3 |
| 20260507160453 | 10 | 164 | 0.0 | 8.0 | 0.00 | 0.00 | 0.00 | 43 | 1012.3 |
| 20260507160253 | 10 | 234 | 0.0 | 8.0 | 0.00 | 0.00 | 0.00 | 39 | 1012.3 |
| 20260507160054 | 11 | 228 | 0.0 | 8.0 | 0.00 | 0.00 | 0.00 | 40 | 1012.3 |
| 20260507160031 | 11 | 350 | 0.0 | 6.4 | 0.00 | 0.00 | 0.00 | 40 | 1012.3 |
| 20260507155855 | 11 | 42 | 0.0 | 6.4 | 0.00 | 0.00 | 0.00 | 40 | 1012.4 |
| 20260507155654 | 10 | 235 | 0.0 | 8.0 | 0.00 | 0.00 | 0.00 | 42 | 1012.3 |
| 20260507155529 | 10 | 235 | 0.0 | 8.0 | 0.00 | 0.00 | 0.00 | 43 | 1012.4 |
| 20260507155454 | 10 | 235 | 0.0 | 8.0 | 0.00 | 0.00 | 0.00 | 43 | 1012.3 |
| 20260507155253 | 10 | 230 | 0.0 | 8.0 | 0.00 | 0.00 | 0.00 | 47 | 1012.2 |
| 20260507155055 | 10 | 243 | 0.0 | 8.0 | 0.00 | 0.00 | 0.00 | 44 | 1012.2 |
| 20260507155029 | 10 | 243 | 0.0 | 8.0 | 0.00 | 0.00 | 0.00 | 44 | 1012.3 |
| 20260507154853 | 9 | 243 | 0.0 | 8.0 | 0.00 | 0.00 | 0.00 | 40 | 1012.3 |
| 20260507154655 | 10 | 243 | 0.0 | 8.0 | 0.00 | 0.00 | 0.00 | 42 | 1012.3 |
| 20260507154529 | 10 | 240 | 0.0 | 8.0 | 0.00 | 0.00 | 0.00 | 42 | 1012.4 |
| 20260507154455 | 10 | 261 | 0.0 | 8.0 | 0.00 | 0.00 | 0.00 | 40 | 1012.4 |
| 20260507154352 | 10 | 261 | 0.0 | 6.4 | 0.00 | 0.00 | 0.00 | 42 | 1012.3 |
| 20260507154057 | 10 | 265 | 0.0 | 6.4 | 0.00 | 0.00 | 0.00 | 45 | 1012.3 |
| 20260507154030 | 10 | 235 | 0.0 | 6.4 | 0.00 | 0.00 | 0.00 | 45 | 1012.2 |
| 20260507153853 | 10 | 237 | 0.0 | 6.4 | 0.00 | 0.00 | 0.00 | 44 | 1012.2 |
| 20260507153653 | 10 | 233 | 0.0 | 6.4 | 0.00 | 0.00 | 0.00 | 42 | 1012.3 |
| 20260507153529 | 10 | 30 | 0.0 | 9.7 | 0.00 | 0.00 | 0.00 | 42 | 1012.4 |
| 20260507153451 | 10 | 30 | 0.0 | 9.7 | 0.00 | 0.00 | 0.00 | 44 | 1012.4 |
| 20260507153250 | 10 | 159 | 0.0 | 9.7 | 0.00 | 0.00 | 0.00 | 45 | 1012.4 |
| 20260507153051 | 10 | 159 | 0.0 | 9.7 | 0.00 | 0.00 | 0.00 | 43 | 1012.3 |
| 20260507153030 | 10 | 159 | 0.0 | 9.7 | 0.00 | 0.00 | 0.00 | 42 | 1012.4 |
| 20260507152850 | 9 | 159 | 0.0 | 9.7 | 0.00 | 0.00 | 0.00 | 41 | 1012.4 |
| 20260507152752 | 10 | 21 | 0.0 | 9.7 | 0.00 | 0.00 | 0.00 | 45 | 1012.4 |
| 20260507152526 | 10 | 226 | 0.0 | 9.7 | 0.00 | 0.00 | 0.00 | 45 | 1012.4 |
| 20260507152450 | 10 | 226 | 0.0 | 9.7 | 0.00 | 0.00 | 0.00 | 45 | 1012.4 |
| 20260507152250 | 10 | 237 | 0.0 | 9.7 | 0.00 | 0.00 | 0.00 | 43 | 1012.4 |
| 20260507152024 | 9 | 235 | 0.0 | 9.7 | 0.00 | 0.00 | 0.00 | 44 | 1012.5 |
| 20260507151852 | 9 | 234 | 0.0 | 9.7 | 0.00 | 0.00 | 0.00 | 43 | 1012.5 |
| 20260507151649 | 8 | 223 | 0.0 | 9.7 | 0.00 | 0.00 | 0.00 | 43 | 1012.4 |
| 20260507151522 | 9 | 223 | 0.0 | 9.7 | 0.00 | 0.00 | 0.00 | 44 | 1012.4 |
| 20260507151450 | 9 | 223 | 0.0 | 9.7 | 0.00 | 0.00 | 0.00 | 43 | 1012.4 |
| 20260507151249 | 9 | 250 | 0.0 | 6.4 | 0.00 | 0.00 | 0.00 | 45 | 1012.5 |
| 20260507151021 | 8 | 250 | 0.0 | 6.4 | 0.00 | 0.00 | 0.00 | 43 | 1012.4 |
| 20260507150848 | 8 | 248 | 0.0 | 6.4 | 0.00 | 0.00 | 0.00 | 45 | 1012.5 |
| 20260507150646 | 8 | 203 | 0.0 | 6.4 | 0.00 | 0.00 | 0.00 | 47 | 1012.4 |
| 20260507150544 | 8 | 204 | 0.0 | 6.4 | 0.00 | 0.00 | 0.00 | 50 | 1012.4 |
| 20260507150520 | 8 | 203 | 0.0 | 6.4 | 0.00 | 0.00 | 0.00 | 48 | 1012.4 |
| 20260507150330 | 8 | 193 | 0.0 | 6.4 | 0.00 | 0.00 | 0.00 | 49 | 1012.5 |
| 20260507150315 | 8 | 204 | 0.0 | 6.4 | 0.00 | 0.00 | 0.00 | 49 | 1012.3 |
| 20260507150245 | 8 | 193 | 0.0 | 6.4 | 0.00 | 0.00 | 0.00 | 49 | 1012.5 |
| 20260507145842 | 8 | 193 | 0.0 | 6.4 | 0.00 | 0.00 | 0.00 | 47 | 1012.4 |
| 20260507145641 | 8 | 193 | 0.0 | 8.0 | 0.00 | 0.00 | 0.00 | 49 | 1012.5 |
| 20260507145508 | 8 | 193 | 0.0 | 8.0 | 0.00 | 0.00 | 0.00 | 49 | 1012.5 |
| 20260507145443 | 8 | 193 | 0.0 | 8.0 | 0.00 | 0.00 | 0.00 | 49 | 1012.5 |
| 20260507145238 | 8 | 193 | 0.0 | 8.0 | 0.00 | 0.00 | 0.00 | 50 | 1012.4 |
| 20260507145038 | 8 | 193 | 0.0 | 8.0 | 0.00 | 0.00 | 0.00 | 50 | 1012.4 |
| 20260507145003 | 8 | 243 | 0.0 | 8.0 | 0.00 | 0.00 | 0.00 | 49 | 1012.4 |
| 20260507144937 | 8 | 243 | 0.0 | 8.0 | 0.00 | 0.00 | 0.00 | 48 | 1012.5 |
| 20260507144637 | 8 | 247 | 0.0 | 6.4 | 0.00 | 0.00 | 0.00 | 50 | 1012.5 |
| 20260507144504 | 8 | 266 | 0.0 | 6.4 | 0.00 | 0.00 | 0.00 | 50 | 1012.5 |
| 20260507144437 | 8 | 266 | 0.0 | 6.4 | 0.00 | 0.00 | 0.00 | 50 | 1012.6 |
| 20260507144236 | 9 | 317 | 0.0 | 4.8 | 0.00 | 0.00 | 0.00 | 48 | 1012.5 |
| 20260507144035 | 9 | 317 | 0.0 | 4.8 | 0.00 | 0.00 | 0.00 | 48 | 1012.6 |
| 20260507144002 | 9 | 317 | 0.0 | 4.8 | 0.00 | 0.00 | 0.00 | 49 | 1012.6 |
| 20260507143833 | 9 | 38 | 0.0 | 3.2 | 0.00 | 0.00 | 0.00 | 51 | 1012.4 |
| 20260507143633 | 9 | 38 | 0.0 | 6.4 | 0.00 | 0.00 | 0.00 | 53 | 1012.6 |
| 20260507143503 | 8 | 38 | 0.0 | 6.4 | 0.00 | 0.00 | 0.00 | 48 | 1012.4 |
| 20260507143431 | 8 | 38 | 0.0 | 6.4 | 0.00 | 0.00 | 0.00 | 48 | 1012.5 |
| 20260507143236 | 8 | 38 | 0.0 | 6.4 | 0.00 | 0.00 | 0.00 | 50 | 1012.5 |
| 20260507143035 | 8 | 38 | 0.0 | 6.4 | 0.00 | 0.00 | 0.00 | 51 | 1012.6 |
| 20260507143004 | 8 | 38 | 0.0 | 6.4 | 0.00 | 0.00 | 0.00 | 50 | 1012.6 |
| 20260507142935 | 8 | 38 | 0.0 | 6.4 | 0.00 | 0.00 | 0.00 | 49 | 1012.6 |
| 20260507142636 | 8 | 238 | 0.0 | 4.8 | 0.00 | 0.00 | 0.00 | 52 | 1012.6 |
| 20260507142501 | 8 | 238 | 0.0 | 4.8 | 0.00 | 0.00 | 0.00 | 52 | 1012.6 |
| 20260507142412 | 8 | 238 | 0.0 | 4.8 | 0.00 | 0.00 | 0.00 | 51 | 1012.6 |
| 20260507142210 | 8 | 238 | 0.0 | 4.8 | 0.00 | 0.00 | 0.00 | 51 | 1012.7 |
| 20260507142002 | 7 | 238 | 0.0 | 4.8 | 0.00 | 0.00 | 0.00 | 50 | 1012.7 |
| 20260507141807 | 7 | 238 | 0.0 | 4.8 | 0.00 | 0.00 | 0.00 | 50 | 1012.7 |
| 20260507141607 | 8 | 233 | 0.0 | 4.8 | 0.00 | 0.00 | 0.00 | 51 | 1012.7 |
| 20260507141459 | 8 | 233 | 0.0 | 4.8 | 0.00 | 0.00 | 0.00 | 51 | 1012.7 |
| 20260507141411 | 8 | 233 | 0.0 | 4.8 | 0.00 | 0.00 | 0.00 | 52 | 1012.7 |
| 20260507141310 | 8 | 233 | 0.0 | 8.0 | 0.00 | 0.00 | 0.00 | 52 | 1012.7 |
| 20260507141021 | 8 | 233 | 0.0 | 8.0 | 0.00 | 0.00 | 0.00 | 53 | 1012.7 |
| 20260507140959 | 7 | 233 | 0.0 | 8.0 | 0.00 | 0.00 | 0.00 | 53 | 1012.7 |
| 20260507140807 | 7 | 233 | 0.0 | 8.0 | 0.00 | 0.00 | 0.00 | 54 | 1012.7 |
| 20260507140606 | 7 | 233 | 0.0 | 8.0 | 0.00 | 0.00 | 0.00 | 54 | 1012.6 |
| 20260507140455 | 7 | 233 | 0.0 | 8.0 | 0.00 | 0.00 | 0.00 | 52 | 1012.7 |
| 20260507140406 | 7 | 233 | 0.0 | 8.0 | 0.00 | 0.00 | 0.00 | 52 | 1012.7 |
| 20260507140204 | 7 | 241 | 0.0 | 6.4 | 0.00 | 0.00 | 0.00 | 54 | 1012.7 |
| 20260507140011 | 7 | 241 | 0.0 | 6.4 | 0.00 | 0.00 | 0.00 | 53 | 1012.7 |
| 20260507135956 | 7 | 241 | 0.0 | 6.4 | 0.00 | 0.00 | 0.00 | 53 | 1012.7 |